Time,TemperatureF,DewpointF,PressureIn,WindDirection,WindDirectionDegrees,WindSpeedMPH,WindSpeedGustMPH,Humidity,HourlyPrecipIn,Conditions,Clouds,dailyrainin,SoftwareType,DateUTC
2013-02-10 00:03:00,36.0,31.9,30.13,NW,310,0.0,0.0,85,0.00,,,0.00,Wunderground v.1.15,2013-02-10 08:03:00,
2013-02-10 00:07:00,36.0,31.6,30.13,NW,310,0.0,0.0,84,0.00,,,0.00,Wunderground v.1.15,2013-02-10 08:07:00,
2013-02-10 00:10:00,36.0,31.9,30.13,NW,310,0.0,0.0,85,0.00,,,0.00,Wunderground v.1.15,2013-02-10 08:10:00,
2013-02-10 00:11:00,36.0,31.9,30.12,NW,310,0.0,0.0,85,0.00,,,0.00,Wunderground v.1.15,2013-02-10 08:11:00,
2013-02-10 00:12:00,36.0,31.9,30.12,NW,310,0.0,0.0,85,0.00,,,0.00,Wunderground v.1.15,2013-02-10 08:12:00,
2013-02-10 00:17:00,36.0,31.6,30.12,NW,310,0.0,0.0,84,0.00,,,0.00,Wunderground v.1.15,2013-02-10 08:17:00,
2013-02-10 00:18:00,36.1,31.7,30.12,NW,310,0.0,0.0,84,0.00,,,0.00,Wunderground v.1.15,2013-02-10 08:18:00,
2013-02-10 00:21:00,36.1,31.7,30.12,NW,310,0.0,0.0,84,0.00,,,0.00,Wunderground v.1.15,2013-02-10 08:21:00,
2013-02-10 00:23:00,36.0,31.6,30.12,NW,310,0.0,0.0,84,0.00,,,0.00,Wunderground v.1.15,2013-02-10 08:23:00,
2013-02-10 00:26:00,36.0,31.6,30.12,NW,310,0.0,0.0,84,0.00,,,0.00,Wunderground v.1.15,2013-02-10 08:26:00,
2013-02-10 00:27:00,36.0,31.6,30.12,NW,310,0.0,0.0,84,0.00,,,0.00,Wunderground v.1.15,2013-02-10 08:27:00,
2013-02-10 00:29:00,36.0,31.3,30.12,NW,310,0.0,0.0,83,0.00,,,0.00,Wunderground v.1.15,2013-02-10 08:29:00,
2013-02-10 00:32:00,36.0,31.3,30.12,NW,310,0.0,0.0,83,0.00,,,0.00,Wunderground v.1.15,2013-02-10 08:32:00,
2013-02-10 00:35:00,35.8,31.1,30.12,NW,310,0.0,0.0,83,0.00,,,0.00,Wunderground v.1.15,2013-02-10 08:35:00,
2013-02-10 00:37:00,35.8,31.4,30.12,NW,310,0.0,1.0,84,0.00,,,0.00,Wunderground v.1.15,2013-02-10 08:37:00,
2013-02-10 00:38:00,35.7,31.3,30.12,NW,310,0.0,1.0,84,0.00,,,0.00,Wunderground v.1.15,2013-02-10 08:38:00,
2013-02-10 00:40:00,35.7,31.3,30.12,NW,310,0.0,0.0,84,0.00,,,0.00,Wunderground v.1.15,2013-02-10 08:40:00,
2013-02-10 00:42:00,35.6,31.2,30.12,NW,310,0.0,0.0,84,0.00,,,0.00,Wunderground v.1.15,2013-02-10 08:42:00,
2013-02-10 00:43:00,35.6,31.2,30.12,NW,310,0.0,0.0,84,0.00,,,0.00,Wunderground v.1.15,2013-02-10 08:43:00,
2013-02-10 00:46:00,35.5,31.1,30.12,NW,310,0.0,0.0,84,0.00,,,0.00,Wunderground v.1.15,2013-02-10 08:46:00,
2013-02-10 00:49:00,35.5,31.1,30.12,NW,310,1.0,1.0,84,0.00,,,0.00,Wunderground v.1.15,2013-02-10 08:49:00,
2013-02-10 00:50:00,35.5,31.1,30.12,NW,310,0.0,0.0,84,0.00,,,0.00,Wunderground v.1.15,2013-02-10 08:50:00,
2013-02-10 00:51:00,35.6,31.2,30.12,NW,310,1.0,1.0,84,0.00,,,0.00,Wunderground v.1.15,2013-02-10 08:51:00,
2013-02-10 00:54:00,35.8,31.4,30.12,NW,310,1.0,3.0,84,0.00,,,0.00,Wunderground v.1.15,2013-02-10 08:54:00,
2013-02-10 00:56:00,35.9,31.2,30.12,NNW,332,5.0,5.0,83,0.00,,,0.00,Wunderground v.1.15,2013-02-10 08:56:00,
2013-02-10 00:59:00,35.5,30.8,30.12,NNW,333,0.0,5.0,83,0.00,,,0.00,Wunderground v.1.15,2013-02-10 08:59:00,
2013-02-10 01:01:00,35.2,30.6,30.12,NNW,333,0.0,2.0,83,0.00,,,0.00,Wunderground v.1.15,2013-02-10 09:01:00,
2013-02-10 01:02:00,35.1,30.5,30.12,NNW,333,1.0,2.0,83,0.00,,,0.00,Wunderground v.1.15,2013-02-10 09:02:00,
2013-02-10 01:05:00,34.8,30.5,30.12,NNW,333,0.0,2.0,84,0.00,,,0.00,Wunderground v.1.15,2013-02-10 09:05:00,
2013-02-10 01:08:00,34.7,30.4,30.12,NNW,333,1.0,2.0,84,0.00,,,0.00,Wunderground v.1.15,2013-02-10 09:08:00,
2013-02-10 01:11:00,34.5,30.5,30.12,NNW,343,1.0,1.0,85,0.00,,,0.00,Wunderground v.1.15,2013-02-10 09:11:00,
2013-02-10 01:12:00,34.5,30.5,30.12,NNW,343,0.0,1.0,85,0.00,,,0.00,Wunderground v.1.15,2013-02-10 09:12:00,
2013-02-10 01:14:00,34.4,30.4,30.12,North,354,2.0,4.0,85,0.00,,,0.00,Wunderground v.1.15,2013-02-10 09:14:00,
2013-02-10 01:17:00,34.4,30.6,30.12,North,354,0.0,4.0,86,0.00,,,0.00,Wunderground v.1.15,2013-02-10 09:17:00,
2013-02-10 01:20:00,34.4,30.6,30.12,North,354,0.0,1.0,86,0.00,,,0.00,Wunderground v.1.15,2013-02-10 09:20:00,
2013-02-10 01:21:00,34.3,30.5,30.12,North,354,1.0,1.0,86,0.00,,,0.00,Wunderground v.1.15,2013-02-10 09:21:00,
2013-02-10 01:22:00,34.2,30.4,30.12,North,354,0.0,1.0,86,0.00,,,0.00,Wunderground v.1.15,2013-02-10 09:22:00,
2013-02-10 01:23:00,34.2,30.4,30.12,North,354,1.0,1.0,86,0.00,,,0.00,Wunderground v.1.15,2013-02-10 09:23:00,
2013-02-10 01:28:00,34.0,30.3,30.12,North,354,1.0,1.0,86,0.00,,,0.00,Wunderground v.1.15,2013-02-10 09:28:00,
2013-02-10 01:29:00,34.0,30.3,30.12,North,354,0.0,1.0,86,0.00,,,0.00,Wunderground v.1.15,2013-02-10 09:29:00,
2013-02-10 01:30:00,34.0,30.5,30.12,North,354,0.0,1.0,87,0.00,,,0.00,Wunderground v.1.15,2013-02-10 09:30:00,
2013-02-10 01:35:00,33.9,30.2,30.12,North,354,0.0,1.0,86,0.00,,,0.00,Wunderground v.1.15,2013-02-10 09:35:00,
2013-02-10 01:36:00,33.9,30.4,30.12,North,354,1.0,1.0,87,0.00,,,0.00,Wunderground v.1.15,2013-02-10 09:36:00,
2013-02-10 01:37:00,33.9,30.4,30.12,North,354,2.0,2.0,87,0.00,,,0.00,Wunderground v.1.15,2013-02-10 09:37:00,
2013-02-10 01:40:00,34.5,31.3,30.12,North,354,0.0,1.0,88,0.00,,,0.00,Wunderground v.1.15,2013-02-10 09:40:00,
2013-02-10 01:42:00,34.7,31.2,30.12,North,354,0.0,1.0,87,0.00,,,0.00,Wunderground v.1.15,2013-02-10 09:42:00,
2013-02-10 01:45:00,34.7,30.9,30.11,North,354,0.0,1.0,86,0.00,,,0.00,Wunderground v.1.15,2013-02-10 09:45:00,
2013-02-10 01:46:00,34.7,30.9,30.12,North,354,0.0,1.0,86,0.00,,,0.00,Wunderground v.1.15,2013-02-10 09:46:00,
2013-02-10 01:48:00,34.6,30.6,30.12,North,354,0.0,1.0,85,0.00,,,0.00,Wunderground v.1.15,2013-02-10 09:48:00,
2013-02-10 01:53:00,34.4,30.4,30.12,North,354,0.0,0.0,85,0.00,,,0.00,Wunderground v.1.15,2013-02-10 09:53:00,
2013-02-10 01:55:00,34.3,30.3,30.12,North,354,0.0,0.0,85,0.00,,,0.00,Wunderground v.1.15,2013-02-10 09:55:00,
2013-02-10 01:56:00,34.2,30.2,30.12,North,354,0.0,0.0,85,0.00,,,0.00,Wunderground v.1.15,2013-02-10 09:56:00,
2013-02-10 02:00:00,33.8,30.1,30.12,North,354,0.0,0.0,86,0.00,,,0.00,Wunderground v.1.15,2013-02-10 10:00:00,
2013-02-10 02:01:00,33.8,30.1,30.12,North,354,0.0,1.0,86,0.00,,,0.00,Wunderground v.1.15,2013-02-10 10:01:00,
2013-02-10 02:05:00,33.7,30.0,30.12,North,354,0.0,1.0,86,0.00,,,0.00,Wunderground v.1.15,2013-02-10 10:05:00,
2013-02-10 02:06:00,33.7,30.0,30.12,North,354,0.0,1.0,86,0.00,,,0.00,Wunderground v.1.15,2013-02-10 10:06:00,
2013-02-10 02:10:00,33.5,30.0,30.12,North,354,0.0,0.0,87,0.00,,,0.00,Wunderground v.1.15,2013-02-10 10:10:00,
2013-02-10 02:11:00,33.5,30.0,30.12,North,354,0.0,1.0,87,0.00,,,0.00,Wunderground v.1.15,2013-02-10 10:11:00,
2013-02-10 02:12:00,33.5,30.0,30.12,North,354,0.0,1.0,87,0.00,,,0.00,Wunderground v.1.15,2013-02-10 10:12:00,
2013-02-10 02:15:00,33.4,29.9,30.12,North,354,0.0,1.0,87,0.00,,,0.00,Wunderground v.1.15,2013-02-10 10:15:00,
2013-02-10 02:16:00,33.4,29.9,30.12,North,354,0.0,1.0,87,0.00,,,0.00,Wunderground v.1.15,2013-02-10 10:16:00,
2013-02-10 02:17:00,33.4,29.9,30.12,North,354,0.0,1.0,87,0.00,,,0.00,Wunderground v.1.15,2013-02-10 10:17:00,
2013-02-10 02:20:00,33.4,30.2,30.12,North,354,0.0,0.0,88,0.00,,,0.00,Wunderground v.1.15,2013-02-10 10:20:00,
2013-02-10 02:21:00,33.4,30.2,30.12,North,354,0.0,0.0,88,0.00,,,0.00,Wunderground v.1.15,2013-02-10 10:21:00,
2013-02-10 02:22:00,33.4,30.2,30.12,North,354,0.0,0.0,88,0.00,,,0.00,Wunderground v.1.15,2013-02-10 10:22:00,
2013-02-10 02:25:00,33.4,29.9,30.12,North,354,0.0,1.0,87,0.00,,,0.00,Wunderground v.1.15,2013-02-10 10:25:00,
2013-02-10 02:26:00,33.4,29.9,30.12,North,354,1.0,1.0,87,0.00,,,0.00,Wunderground v.1.15,2013-02-10 10:26:00,
2013-02-10 02:27:00,33.3,29.8,30.13,North,354,1.0,1.0,87,0.00,,,0.00,Wunderground v.1.15,2013-02-10 10:27:00,
2013-02-10 02:30:00,33.2,29.8,30.13,North,354,0.0,0.0,87,0.00,,,0.00,Wunderground v.1.15,2013-02-10 10:30:00,
2013-02-10 02:31:00,33.2,29.8,30.13,North,354,0.0,0.0,87,0.00,,,0.00,Wunderground v.1.15,2013-02-10 10:31:00,
2013-02-10 02:32:00,33.2,30.0,30.13,North,354,0.0,1.0,88,0.00,,,0.00,Wunderground v.1.15,2013-02-10 10:32:00,
2013-02-10 02:36:00,33.2,30.0,30.13,North,354,0.0,1.0,88,0.00,,,0.00,Wunderground v.1.15,2013-02-10 10:36:00,
2013-02-10 02:37:00,33.3,30.1,30.13,North,354,0.0,1.0,88,0.00,,,0.00,Wunderground v.1.15,2013-02-10 10:37:00,
2013-02-10 02:41:00,33.3,30.1,30.12,North,354,0.0,0.0,88,0.00,,,0.00,Wunderground v.1.15,2013-02-10 10:41:00,
2013-02-10 02:42:00,33.3,30.1,30.12,North,354,0.0,0.0,88,0.00,,,0.00,Wunderground v.1.15,2013-02-10 10:42:00,
2013-02-10 02:46:00,33.5,30.3,30.12,North,354,0.0,0.0,88,0.00,,,0.00,Wunderground v.1.15,2013-02-10 10:46:00,
2013-02-10 02:47:00,33.5,30.3,30.12,North,354,0.0,1.0,88,0.00,,,0.00,Wunderground v.1.15,2013-02-10 10:47:00,
2013-02-10 02:48:00,33.5,30.3,30.12,North,354,0.0,1.0,88,0.00,,,0.00,Wunderground v.1.15,2013-02-10 10:48:00,
2013-02-10 02:52:00,33.6,30.4,30.12,North,354,0.0,0.0,88,0.00,,,0.00,Wunderground v.1.15,2013-02-10 10:52:00,
2013-02-10 02:53:00,33.6,30.4,30.12,North,354,0.0,0.0,88,0.00,,,0.00,Wunderground v.1.15,2013-02-10 10:53:00,
2013-02-10 02:57:00,33.5,30.0,30.13,North,354,0.0,0.0,87,0.00,,,0.00,Wunderground v.1.15,2013-02-10 10:57:00,
2013-02-10 02:58:00,33.5,30.0,30.12,North,354,0.0,0.0,87,0.00,,,0.00,Wunderground v.1.15,2013-02-10 10:58:00,
2013-02-10 03:02:00,33.4,29.9,30.13,North,354,0.0,0.0,87,0.00,,,0.00,Wunderground v.1.15,2013-02-10 11:02:00,
2013-02-10 03:03:00,33.3,29.8,30.13,North,354,0.0,0.0,87,0.00,,,0.00,Wunderground v.1.15,2013-02-10 11:03:00,
2013-02-10 03:07:00,33.0,29.3,30.12,North,354,0.0,0.0,86,0.00,,,0.00,Wunderground v.1.15,2013-02-10 11:07:00,
2013-02-10 03:08:00,33.0,29.3,30.12,North,354,0.0,0.0,86,0.00,,,0.00,Wunderground v.1.15,2013-02-10 11:08:00,
2013-02-10 03:12:00,32.8,29.4,30.13,North,354,0.0,0.0,87,0.00,,,0.00,Wunderground v.1.15,2013-02-10 11:12:00,
2013-02-10 03:13:00,32.8,29.4,30.13,North,354,0.0,0.0,87,0.00,,,0.00,Wunderground v.1.15,2013-02-10 11:13:00,
2013-02-10 03:17:00,32.7,29.3,30.12,North,354,0.0,0.0,87,0.00,,,0.00,Wunderground v.1.15,2013-02-10 11:17:00,
2013-02-10 03:18:00,32.7,29.3,30.12,North,354,0.0,0.0,87,0.00,,,0.00,Wunderground v.1.15,2013-02-10 11:18:00,
2013-02-10 03:23:00,32.5,29.1,30.12,North,354,0.0,0.0,87,0.00,,,0.00,Wunderground v.1.15,2013-02-10 11:23:00,
2013-02-10 03:28:00,32.5,29.1,30.12,North,354,1.0,2.0,87,0.00,,,0.00,Wunderground v.1.15,2013-02-10 11:28:00,
2013-02-10 03:29:00,32.5,29.1,30.12,North,354,2.0,2.0,87,0.00,,,0.00,Wunderground v.1.15,2013-02-10 11:29:00,
2013-02-10 03:33:00,32.5,29.3,30.12,North,354,2.0,3.0,88,0.00,,,0.00,Wunderground v.1.15,2013-02-10 11:33:00,
2013-02-10 03:34:00,32.5,29.3,30.12,North,359,2.0,4.0,88,0.00,,,0.00,Wunderground v.1.15,2013-02-10 11:34:00,
2013-02-10 03:38:00,32.3,29.1,30.12,North,359,0.0,4.0,88,0.00,,,0.00,Wunderground v.1.15,2013-02-10 11:38:00,
2013-02-10 03:39:00,32.3,29.1,30.12,North,354,0.0,4.0,88,0.00,,,0.00,Wunderground v.1.15,2013-02-10 11:39:00,
2013-02-10 03:43:00,31.9,28.8,30.12,North,354,0.0,2.0,88,0.00,,,0.00,Wunderground v.1.15,2013-02-10 11:43:00,
2013-02-10 03:44:00,31.9,28.8,30.12,North,354,0.0,2.0,88,0.00,,,0.00,Wunderground v.1.15,2013-02-10 11:44:00,
2013-02-10 03:48:00,31.8,28.9,30.12,North,359,1.0,2.0,89,0.00,,,0.00,Wunderground v.1.15,2013-02-10 11:48:00,
2013-02-10 03:49:00,31.8,28.9,30.12,North,359,0.0,2.0,89,0.00,,,0.00,Wunderground v.1.15,2013-02-10 11:49:00,
2013-02-10 03:50:00,31.8,28.9,30.12,North,354,3.0,3.0,89,0.00,,,0.00,Wunderground v.1.15,2013-02-10 11:50:00,
2013-02-10 03:54:00,32.4,30.1,30.11,North,354,2.0,3.0,91,0.00,,,0.00,Wunderground v.1.15,2013-02-10 11:54:00,
2013-02-10 03:55:00,32.6,30.3,30.11,North,354,2.0,3.0,91,0.00,,,0.00,Wunderground v.1.15,2013-02-10 11:55:00,
2013-02-10 03:59:00,33.6,30.7,30.12,NNW,343,1.0,5.0,89,0.00,,,0.00,Wunderground v.1.15,2013-02-10 11:59:00,
2013-02-10 04:00:00,33.5,30.3,30.12,NNW,343,3.0,3.0,88,0.00,,,0.00,Wunderground v.1.15,2013-02-10 12:00:00,
2013-02-10 04:04:00,33.1,29.7,30.12,NNW,343,1.0,3.0,87,0.00,,,0.00,Wunderground v.1.15,2013-02-10 12:04:00,
2013-02-10 04:05:00,33.1,29.7,30.12,NNW,343,2.0,3.0,87,0.00,,,0.00,Wunderground v.1.15,2013-02-10 12:05:00,
2013-02-10 04:09:00,32.7,29.5,30.11,NNW,343,1.0,3.0,88,0.00,,,0.00,Wunderground v.1.15,2013-02-10 12:09:00,
2013-02-10 04:10:00,32.6,29.4,30.11,NNW,343,0.0,1.0,88,0.00,,,0.00,Wunderground v.1.15,2013-02-10 12:10:00,
2013-02-10 04:11:00,32.6,29.4,30.11,NNW,343,1.0,1.0,88,0.00,,,0.00,Wunderground v.1.15,2013-02-10 12:11:00,
2013-02-10 04:14:00,32.4,29.2,30.11,NNW,343,3.0,3.0,88,0.00,,,0.00,Wunderground v.1.15,2013-02-10 12:14:00,
2013-02-10 04:15:00,32.4,29.2,30.11,NNW,343,0.0,3.0,88,0.00,,,0.00,Wunderground v.1.15,2013-02-10 12:15:00,
2013-02-10 04:16:00,32.3,29.1,30.11,NNW,343,2.0,5.0,88,0.00,,,0.00,Wunderground v.1.15,2013-02-10 12:16:00,
2013-02-10 04:20:00,32.2,29.0,30.11,NNW,345,0.0,2.0,88,0.00,,,0.00,Wunderground v.1.15,2013-02-10 12:20:00,
2013-02-10 04:22:00,32.1,29.2,30.12,NNW,345,0.0,2.0,89,0.00,,,0.00,Wunderground v.1.15,2013-02-10 12:22:00,
2013-02-10 04:25:00,32.1,29.2,30.12,NNW,345,0.0,2.0,89,0.00,,,0.00,Wunderground v.1.15,2013-02-10 12:25:00,
2013-02-10 04:27:00,32.1,29.2,30.12,NNW,345,0.0,2.0,89,0.00,,,0.00,Wunderground v.1.15,2013-02-10 12:27:00,
2013-02-10 04:30:00,32.1,29.2,30.12,NNW,345,0.0,0.0,89,0.00,,,0.00,Wunderground v.1.15,2013-02-10 12:30:00,
2013-02-10 04:33:00,32.1,29.2,30.12,NNW,345,0.0,0.0,89,0.00,,,0.00,Wunderground v.1.15,2013-02-10 12:33:00,
2013-02-10 04:35:00,32.1,29.2,30.12,NNW,345,0.0,1.0,89,0.00,,,0.00,Wunderground v.1.15,2013-02-10 12:35:00,
2013-02-10 04:36:00,32.1,29.2,30.12,NNW,345,0.0,1.0,89,0.00,,,0.00,Wunderground v.1.15,2013-02-10 12:36:00,
2013-02-10 04:38:00,32.1,29.2,30.12,NNW,345,0.0,1.0,89,0.00,,,0.00,Wunderground v.1.15,2013-02-10 12:38:00,
2013-02-10 04:40:00,32.0,28.8,30.12,NNW,345,0.0,0.0,88,0.00,,,0.00,Wunderground v.1.15,2013-02-10 12:40:00,
2013-02-10 04:41:00,32.0,28.8,30.12,NNW,345,0.0,0.0,88,0.00,,,0.00,Wunderground v.1.15,2013-02-10 12:41:00,
2013-02-10 04:43:00,32.0,28.8,30.12,NNW,345,0.0,0.0,88,0.00,,,0.00,Wunderground v.1.15,2013-02-10 12:43:00,
2013-02-10 04:45:00,31.9,28.8,30.12,NNW,345,0.0,0.0,88,0.00,,,0.00,Wunderground v.1.15,2013-02-10 12:45:00,
2013-02-10 04:46:00,31.9,28.8,30.12,NNW,345,0.0,0.0,88,0.00,,,0.00,Wunderground v.1.15,2013-02-10 12:46:00,
2013-02-10 04:48:00,31.9,28.8,30.12,NNW,345,0.0,0.0,88,0.00,,,0.00,Wunderground v.1.15,2013-02-10 12:48:00,
2013-02-10 04:50:00,31.8,28.9,30.12,NNW,345,0.0,0.0,89,0.00,,,0.00,Wunderground v.1.15,2013-02-10 12:50:00,
2013-02-10 04:51:00,31.8,28.9,30.12,NNW,345,0.0,0.0,89,0.00,,,0.00,Wunderground v.1.15,2013-02-10 12:51:00,
2013-02-10 04:53:00,31.8,28.9,30.12,NNW,345,0.0,0.0,89,0.00,,,0.00,Wunderground v.1.15,2013-02-10 12:53:00,
2013-02-10 04:55:00,31.7,28.8,30.12,North,359,0.0,0.0,89,0.00,,,0.00,Wunderground v.1.15,2013-02-10 12:55:00,
2013-02-10 04:56:00,31.7,28.8,30.12,NNW,345,0.0,0.0,89,0.00,,,0.00,Wunderground v.1.15,2013-02-10 12:56:00,
2013-02-10 04:59:00,31.8,28.9,30.12,NNW,345,0.0,0.0,89,0.00,,,0.00,Wunderground v.1.15,2013-02-10 12:59:00,
2013-02-10 05:01:00,31.8,28.9,30.13,NNW,345,0.0,0.0,89,0.00,,,0.00,Wunderground v.1.15,2013-02-10 13:01:00,
2013-02-10 05:04:00,31.8,28.9,30.13,NNW,345,1.0,1.0,89,0.00,,,0.00,Wunderground v.1.15,2013-02-10 13:04:00,
2013-02-10 05:06:00,31.9,29.0,30.13,NNW,345,0.0,1.0,89,0.00,,,0.00,Wunderground v.1.15,2013-02-10 13:06:00,
2013-02-10 05:09:00,31.9,29.0,30.13,North,359,0.0,1.0,89,0.00,,,0.00,Wunderground v.1.15,2013-02-10 13:09:00,
2013-02-10 05:11:00,31.9,29.0,30.12,NNW,345,0.0,1.0,89,0.00,,,0.00,Wunderground v.1.15,2013-02-10 13:11:00,
2013-02-10 05:12:00,31.9,29.0,30.13,NNW,345,0.0,1.0,89,0.00,,,0.00,Wunderground v.1.15,2013-02-10 13:12:00,
2013-02-10 05:14:00,31.7,28.6,30.13,NNW,345,0.0,1.0,88,0.00,,,0.00,Wunderground v.1.15,2013-02-10 13:14:00,
2013-02-10 05:16:00,31.6,28.5,30.13,NNW,345,0.0,2.0,88,0.00,,,0.00,Wunderground v.1.15,2013-02-10 13:16:00,
2013-02-10 05:17:00,31.6,28.7,30.12,North,359,0.0,2.0,89,0.00,,,0.00,Wunderground v.1.15,2013-02-10 13:17:00,
2013-02-10 05:19:00,31.5,28.6,30.12,North,359,0.0,2.0,89,0.00,,,0.00,Wunderground v.1.15,2013-02-10 13:19:00,
2013-02-10 05:21:00,31.5,28.6,30.12,North,359,0.0,1.0,89,0.00,,,0.00,Wunderground v.1.15,2013-02-10 13:21:00,
2013-02-10 05:22:00,31.4,28.5,30.12,NNW,345,0.0,1.0,89,0.00,,,0.00,Wunderground v.1.15,2013-02-10 13:22:00,
2013-02-10 05:25:00,31.3,28.4,30.12,NNW,345,2.0,2.0,89,0.00,,,0.00,Wunderground v.1.15,2013-02-10 13:25:00,
2013-02-10 05:26:00,31.1,28.2,30.12,NNW,345,0.0,3.0,89,0.00,,,0.00,Wunderground v.1.15,2013-02-10 13:26:00,
2013-02-10 05:27:00,31.0,28.1,30.12,NNW,345,0.0,3.0,89,0.00,,,0.00,Wunderground v.1.15,2013-02-10 13:27:00,
2013-02-10 05:28:00,31.0,28.1,30.12,NNW,345,0.0,3.0,89,0.00,,,0.00,Wunderground v.1.15,2013-02-10 13:28:00,
2013-02-10 05:30:00,30.9,28.0,30.12,North,359,0.0,1.0,89,0.00,,,0.00,Wunderground v.1.15,2013-02-10 13:30:00,
2013-02-10 05:32:00,30.8,27.9,30.12,NNW,345,0.0,3.0,89,0.00,,,0.00,Wunderground v.1.15,2013-02-10 13:32:00,
2013-02-10 05:33:00,30.8,28.2,30.12,NNW,345,1.0,3.0,90,0.00,,,0.00,Wunderground v.1.15,2013-02-10 13:33:00,
2013-02-10 05:35:00,30.7,28.1,30.12,North,359,0.0,3.0,90,0.00,,,0.00,Wunderground v.1.15,2013-02-10 13:35:00,
2013-02-10 05:37:00,30.6,28.0,30.12,NNW,345,0.0,3.0,90,0.00,,,0.00,Wunderground v.1.15,2013-02-10 13:37:00,
2013-02-10 05:38:00,30.6,28.0,30.12,NNW,345,1.0,3.0,90,0.00,,,0.00,Wunderground v.1.15,2013-02-10 13:38:00,
2013-02-10 05:40:00,30.6,28.0,30.12,NNW,345,2.0,3.0,90,0.00,,,0.00,Wunderground v.1.15,2013-02-10 13:40:00,
2013-02-10 05:42:00,30.6,28.0,30.12,North,359,1.0,4.0,90,0.00,,,0.00,Wunderground v.1.15,2013-02-10 13:42:00,
2013-02-10 05:43:00,30.7,28.1,30.12,NNW,345,1.0,4.0,90,0.00,,,0.00,Wunderground v.1.15,2013-02-10 13:43:00,
2013-02-10 05:45:00,30.7,28.4,30.12,NNW,345,2.0,4.0,91,0.00,,,0.00,Wunderground v.1.15,2013-02-10 13:45:00,
2013-02-10 05:47:00,30.8,28.5,30.12,North,359,0.0,4.0,91,0.00,,,0.00,Wunderground v.1.15,2013-02-10 13:47:00,
2013-02-10 05:48:00,30.7,28.1,30.12,NNW,345,0.0,4.0,90,0.00,,,0.00,Wunderground v.1.15,2013-02-10 13:48:00,
2013-02-10 05:51:00,30.8,28.5,30.13,NNW,345,0.0,1.0,91,0.00,,,0.00,Wunderground v.1.15,2013-02-10 13:51:00,
2013-02-10 05:52:00,30.7,28.1,30.13,NNW,345,0.0,1.0,90,0.00,,,0.00,Wunderground v.1.15,2013-02-10 13:52:00,
2013-02-10 05:53:00,30.7,28.1,30.13,NNW,345,2.0,2.0,90,0.00,,,0.00,Wunderground v.1.15,2013-02-10 13:53:00,
2013-02-10 05:56:00,30.7,28.1,30.13,NNW,345,0.0,2.0,90,0.00,,,0.00,Wunderground v.1.15,2013-02-10 13:56:00,
2013-02-10 05:57:00,30.7,28.1,30.13,NNW,345,0.0,2.0,90,0.00,,,0.00,Wunderground v.1.15,2013-02-10 13:57:00,
2013-02-10 05:58:00,30.7,28.4,30.13,NNW,345,0.0,2.0,91,0.00,,,0.00,Wunderground v.1.15,2013-02-10 13:58:00,
2013-02-10 06:01:00,30.7,28.1,30.13,NNW,345,1.0,2.0,90,0.00,,,0.00,Wunderground v.1.15,2013-02-10 14:01:00,
2013-02-10 06:02:00,30.7,28.1,30.13,NNW,345,1.0,2.0,90,0.00,,,0.00,Wunderground v.1.15,2013-02-10 14:02:00,
2013-02-10 06:03:00,30.7,28.1,30.13,North,359,1.0,2.0,90,0.00,,,0.00,Wunderground v.1.15,2013-02-10 14:03:00,
2013-02-10 06:04:00,30.7,28.4,30.13,NNW,345,0.0,2.0,91,0.00,,,0.00,Wunderground v.1.15,2013-02-10 14:04:00,
2013-02-10 06:06:00,30.9,28.6,30.13,NNW,345,0.0,2.0,91,0.00,,,0.00,Wunderground v.1.15,2013-02-10 14:06:00,
2013-02-10 06:08:00,30.9,28.6,30.13,North,359,0.0,2.0,91,0.00,,,0.00,Wunderground v.1.15,2013-02-10 14:08:00,
2013-02-10 06:09:00,30.9,28.6,30.13,NNW,345,0.0,2.0,91,0.00,,,0.00,Wunderground v.1.15,2013-02-10 14:09:00,
2013-02-10 06:11:00,30.9,28.3,30.13,NNW,345,0.0,1.0,90,0.00,,,0.00,Wunderground v.1.15,2013-02-10 14:11:00,
2013-02-10 06:13:00,30.9,28.6,30.14,NNW,345,0.0,1.0,91,0.00,,,0.00,Wunderground v.1.15,2013-02-10 14:13:00,
2013-02-10 06:15:00,30.8,28.2,30.14,NNW,345,0.0,1.0,90,0.00,,,0.00,Wunderground v.1.15,2013-02-10 14:15:00,
2013-02-10 06:16:00,30.8,28.2,30.14,NNW,345,1.0,1.0,90,0.00,,,0.00,Wunderground v.1.15,2013-02-10 14:16:00,
2013-02-10 06:18:00,30.8,28.2,30.13,North,359,0.0,1.0,90,0.00,,,0.00,Wunderground v.1.15,2013-02-10 14:18:00,
2013-02-10 06:20:00,30.8,28.2,30.13,North,359,0.0,0.0,90,0.00,,,0.00,Wunderground v.1.15,2013-02-10 14:20:00,
2013-02-10 06:21:00,30.8,28.2,30.13,NNW,345,0.0,0.0,90,0.00,,,0.00,Wunderground v.1.15,2013-02-10 14:21:00,
2013-02-10 06:23:00,30.7,28.1,30.13,NNW,345,0.0,0.0,90,0.00,,,0.00,Wunderground v.1.15,2013-02-10 14:23:00,
2013-02-10 06:25:00,30.7,28.1,30.14,NNW,345,0.0,0.0,90,0.00,,,0.00,Wunderground v.1.15,2013-02-10 14:25:00,
2013-02-10 06:27:00,30.6,28.0,30.13,NNW,345,0.0,0.0,90,0.00,,,0.00,Wunderground v.1.15,2013-02-10 14:27:00,
2013-02-10 06:28:00,30.6,28.0,30.13,NNW,345,0.0,0.0,90,0.00,,,0.00,Wunderground v.1.15,2013-02-10 14:28:00,
2013-02-10 06:30:00,30.7,28.4,30.14,NNW,345,0.0,0.0,91,0.00,,,0.00,Wunderground v.1.15,2013-02-10 14:30:00,
2013-02-10 06:32:00,30.7,28.4,30.14,NNW,345,0.0,0.0,91,0.00,,,0.00,Wunderground v.1.15,2013-02-10 14:32:00,
2013-02-10 06:33:00,30.7,28.4,30.14,NNW,345,0.0,1.0,91,0.00,,,0.00,Wunderground v.1.15,2013-02-10 14:33:00,
2013-02-10 06:35:00,30.6,28.3,30.14,NNW,345,0.0,1.0,91,0.00,,,0.00,Wunderground v.1.15,2013-02-10 14:35:00,
2013-02-10 06:37:00,30.6,28.3,30.14,NNW,345,1.0,1.0,91,0.00,,,0.00,Wunderground v.1.15,2013-02-10 14:37:00,
2013-02-10 06:38:00,30.5,27.9,30.14,North,359,0.0,1.0,90,0.00,,,0.00,Wunderground v.1.15,2013-02-10 14:38:00,
2013-02-10 06:39:00,30.5,27.9,30.14,North,359,0.0,1.0,90,0.00,,,0.00,Wunderground v.1.15,2013-02-10 14:39:00,
2013-02-10 06:41:00,30.5,28.2,30.14,North,359,0.0,0.0,91,0.00,,,0.00,Wunderground v.1.15,2013-02-10 14:41:00,
2013-02-10 06:42:00,30.5,28.2,30.14,North,359,0.0,0.0,91,0.00,,,0.00,Wunderground v.1.15,2013-02-10 14:42:00,
2013-02-10 06:43:00,30.5,28.2,30.14,NNW,345,0.0,0.0,91,0.00,,,0.00,Wunderground v.1.15,2013-02-10 14:43:00,
2013-02-10 06:44:00,30.5,28.2,30.14,NNW,345,0.0,0.0,91,0.00,,,0.00,Wunderground v.1.15,2013-02-10 14:44:00,
2013-02-10 06:46:00,30.4,28.1,30.14,North,359,0.0,0.0,91,0.00,,,0.00,Wunderground v.1.15,2013-02-10 14:46:00,
2013-02-10 06:47:00,30.4,27.8,30.14,NNW,345,0.0,0.0,90,0.00,,,0.00,Wunderground v.1.15,2013-02-10 14:47:00,
2013-02-10 06:48:00,30.4,27.8,30.14,NNW,345,0.0,0.0,90,0.00,,,0.00,Wunderground v.1.15,2013-02-10 14:48:00,
2013-02-10 06:49:00,30.4,28.1,30.14,NNW,345,0.0,0.0,91,0.00,,,0.00,Wunderground v.1.15,2013-02-10 14:49:00,
2013-02-10 06:51:00,30.4,28.1,30.14,NNW,345,0.0,0.0,91,0.00,,,0.00,Wunderground v.1.15,2013-02-10 14:51:00,
2013-02-10 06:53:00,30.4,28.1,30.14,NNW,345,0.0,0.0,91,0.00,,,0.00,Wunderground v.1.15,2013-02-10 14:53:00,
2013-02-10 06:54:00,30.4,28.1,30.14,NNW,345,0.0,0.0,91,0.00,,,0.00,Wunderground v.1.15,2013-02-10 14:54:00,
2013-02-10 06:56:00,30.5,28.2,30.14,NNW,345,0.0,1.0,91,0.00,,,0.00,Wunderground v.1.15,2013-02-10 14:56:00,
2013-02-10 06:58:00,30.5,28.2,30.14,NNW,345,0.0,1.0,91,0.00,,,0.00,Wunderground v.1.15,2013-02-10 14:58:00,
2013-02-10 06:59:00,30.6,28.3,30.14,North,359,0.0,1.0,91,0.00,,,0.00,Wunderground v.1.15,2013-02-10 14:59:00,
2013-02-10 07:00:00,30.6,28.3,30.14,North,359,0.0,0.0,91,0.00,,,0.00,Wunderground v.1.15,2013-02-10 15:00:00,
2013-02-10 07:01:00,30.6,28.3,30.14,NNW,345,0.0,0.0,91,0.00,,,0.00,Wunderground v.1.15,2013-02-10 15:01:00,
2013-02-10 07:03:00,30.6,28.3,30.14,NNW,345,0.0,0.0,91,0.00,,,0.00,Wunderground v.1.15,2013-02-10 15:03:00,
2013-02-10 07:04:00,30.6,28.3,30.14,NNW,345,0.0,0.0,91,0.00,,,0.00,Wunderground v.1.15,2013-02-10 15:04:00,
2013-02-10 07:05:00,30.6,28.3,30.14,NNW,345,0.0,0.0,91,0.00,,,0.00,Wunderground v.1.15,2013-02-10 15:05:00,
2013-02-10 07:07:00,30.6,28.3,30.14,NNW,345,0.0,1.0,91,0.00,,,0.00,Wunderground v.1.15,2013-02-10 15:07:00,
2013-02-10 07:08:00,30.6,28.3,30.14,NNW,345,0.0,1.0,91,0.00,,,0.00,Wunderground v.1.15,2013-02-10 15:08:00,
2013-02-10 07:09:00,30.6,28.3,30.14,NNW,345,0.0,1.0,91,0.00,,,0.00,Wunderground v.1.15,2013-02-10 15:09:00,
2013-02-10 07:10:00,30.7,28.4,30.14,North,359,0.0,0.0,91,0.00,,,0.00,Wunderground v.1.15,2013-02-10 15:10:00,
2013-02-10 07:13:00,30.7,28.4,30.14,North,359,0.0,1.0,91,0.00,,,0.00,Wunderground v.1.15,2013-02-10 15:13:00,
2013-02-10 07:14:00,30.6,28.3,30.14,NNW,345,0.0,1.0,91,0.00,,,0.00,Wunderground v.1.15,2013-02-10 15:14:00,
2013-02-10 07:15:00,30.6,28.3,30.14,NNW,345,0.0,1.0,91,0.00,,,0.00,Wunderground v.1.15,2013-02-10 15:15:00,
2013-02-10 07:18:00,30.6,28.3,30.14,NNW,345,0.0,1.0,91,0.00,,,0.00,Wunderground v.1.15,2013-02-10 15:18:00,
2013-02-10 07:19:00,30.6,28.3,30.14,NNW,345,0.0,1.0,91,0.00,,,0.00,Wunderground v.1.15,2013-02-10 15:19:00,
2013-02-10 07:20:00,30.6,28.3,30.15,NNW,345,0.0,0.0,91,0.00,,,0.00,Wunderground v.1.15,2013-02-10 15:20:00,
2013-02-10 07:23:00,30.6,28.3,30.15,NNW,345,0.0,1.0,91,0.00,,,0.00,Wunderground v.1.15,2013-02-10 15:23:00,
2013-02-10 07:24:00,30.6,28.3,30.15,NNW,345,0.0,1.0,91,0.00,,,0.00,Wunderground v.1.15,2013-02-10 15:24:00,
2013-02-10 07:26:00,30.7,28.4,30.15,NNW,345,0.0,1.0,91,0.00,,,0.00,Wunderground v.1.15,2013-02-10 15:26:00,
2013-02-10 07:28:00,30.7,28.4,30.15,NNW,345,0.0,1.0,91,0.00,,,0.00,Wunderground v.1.15,2013-02-10 15:28:00,
2013-02-10 07:29:00,30.8,28.5,30.15,NNW,345,0.0,1.0,91,0.00,,,0.00,Wunderground v.1.15,2013-02-10 15:29:00,
2013-02-10 07:31:00,30.9,28.6,30.15,NNW,345,0.0,0.0,91,0.00,,,0.00,Wunderground v.1.15,2013-02-10 15:31:00,
2013-02-10 07:33:00,31.1,28.8,30.15,NNW,345,0.0,1.0,91,0.00,,,0.00,Wunderground v.1.15,2013-02-10 15:33:00,
2013-02-10 07:34:00,31.2,28.9,30.15,NNW,345,0.0,1.0,91,0.00,,,0.00,Wunderground v.1.15,2013-02-10 15:34:00,
2013-02-10 07:36:00,31.4,29.1,30.15,NNW,345,0.0,1.0,91,0.00,,,0.00,Wunderground v.1.15,2013-02-10 15:36:00,
2013-02-10 07:38:00,31.6,29.3,30.15,NNW,345,1.0,2.0,91,0.00,,,0.00,Wunderground v.1.15,2013-02-10 15:38:00,
2013-02-10 07:39:00,31.6,29.3,30.15,NNW,345,0.0,2.0,91,0.00,,,0.00,Wunderground v.1.15,2013-02-10 15:39:00,
2013-02-10 07:41:00,31.8,29.5,30.15,NNW,345,0.0,1.0,91,0.00,,,0.00,Wunderground v.1.15,2013-02-10 15:41:00,
2013-02-10 07:44:00,31.9,29.6,30.15,NNW,345,0.0,1.0,91,0.00,,,0.00,Wunderground v.1.15,2013-02-10 15:44:00,
2013-02-10 07:45:00,32.0,29.7,30.15,NNW,345,0.0,1.0,91,0.00,,,0.00,Wunderground v.1.15,2013-02-10 15:45:00,
2013-02-10 07:47:00,32.1,29.8,30.15,NNW,345,0.0,1.0,91,0.00,,,0.00,Wunderground v.1.15,2013-02-10 15:47:00,
2013-02-10 07:49:00,32.2,29.6,30.15,NNW,345,0.0,1.0,90,0.00,,,0.00,Wunderground v.1.15,2013-02-10 15:49:00,
2013-02-10 07:50:00,32.3,29.7,30.15,NNW,345,0.0,0.0,90,0.00,,,0.00,Wunderground v.1.15,2013-02-10 15:50:00,
2013-02-10 07:53:00,32.7,30.4,30.15,NNW,345,0.0,0.0,91,0.00,,,0.00,Wunderground v.1.15,2013-02-10 15:53:00,
2013-02-10 07:54:00,32.8,30.5,30.15,NNW,345,0.0,0.0,91,0.00,,,0.00,Wunderground v.1.15,2013-02-10 15:54:00,
2013-02-10 07:55:00,32.9,30.6,30.15,NNW,345,0.0,2.0,91,0.00,,,0.00,Wunderground v.1.15,2013-02-10 15:55:00,
2013-02-10 07:59:00,33.2,30.6,30.15,NNW,345,0.0,2.0,90,0.00,,,0.00,Wunderground v.1.15,2013-02-10 15:59:00,
2013-02-10 08:00:00,33.3,30.7,30.15,NNW,345,0.0,0.0,90,0.00,,,0.00,Wunderground v.1.15,2013-02-10 16:00:00,
2013-02-10 08:04:00,33.6,30.7,30.15,NNW,345,1.0,1.0,89,0.00,,,0.00,Wunderground v.1.15,2013-02-10 16:04:00,
2013-02-10 08:05:00,33.7,30.8,30.16,NNW,345,0.0,1.0,89,0.00,,,0.00,Wunderground v.1.15,2013-02-10 16:05:00,
2013-02-10 08:09:00,34.2,31.3,30.15,NNW,345,0.0,1.0,89,0.00,,,0.00,Wunderground v.1.15,2013-02-10 16:09:00,
2013-02-10 08:10:00,34.3,31.4,30.15,NNW,345,0.0,0.0,89,0.00,,,0.00,Wunderground v.1.15,2013-02-10 16:10:00,
2013-02-10 08:14:00,34.8,31.6,30.16,NNW,345,0.0,0.0,88,0.00,,,0.00,Wunderground v.1.15,2013-02-10 16:14:00,
2013-02-10 08:15:00,34.8,31.6,30.16,NNW,345,0.0,0.0,88,0.00,,,0.00,Wunderground v.1.15,2013-02-10 16:15:00,
2013-02-10 08:16:00,35.0,31.8,30.16,NNW,345,0.0,0.0,88,0.00,,,0.00,Wunderground v.1.15,2013-02-10 16:16:00,
2013-02-10 08:19:00,35.3,31.8,30.16,NNW,345,0.0,1.0,87,0.00,,,0.00,Wunderground v.1.15,2013-02-10 16:19:00,
2013-02-10 08:20:00,35.4,31.9,30.16,NNW,345,0.0,0.0,87,0.00,,,0.00,Wunderground v.1.15,2013-02-10 16:20:00,
2013-02-10 08:21:00,35.5,32.0,30.16,NNW,345,0.0,0.0,87,0.00,,,0.00,Wunderground v.1.15,2013-02-10 16:21:00,
2013-02-10 08:24:00,35.7,31.9,30.16,NNW,345,0.0,1.0,86,0.00,,,0.00,Wunderground v.1.15,2013-02-10 16:24:00,
2013-02-10 08:25:00,35.8,32.0,30.16,NNW,345,0.0,1.0,86,0.00,,,0.00,Wunderground v.1.15,2013-02-10 16:25:00,
2013-02-10 08:26:00,35.9,32.1,30.16,NNW,345,0.0,1.0,86,0.00,,,0.00,Wunderground v.1.15,2013-02-10 16:26:00,
2013-02-10 08:29:00,36.3,32.5,30.15,NNW,345,0.0,1.0,86,0.00,,,0.00,Wunderground v.1.15,2013-02-10 16:29:00,
2013-02-10 08:30:00,36.3,32.5,30.15,NNW,345,0.0,0.0,86,0.00,,,0.00,Wunderground v.1.15,2013-02-10 16:30:00,
2013-02-10 08:31:00,36.5,32.7,30.15,NNW,345,0.0,0.0,86,0.00,,,0.00,Wunderground v.1.15,2013-02-10 16:31:00,
2013-02-10 08:34:00,36.8,32.7,30.15,NNW,345,1.0,3.0,85,0.00,,,0.00,Wunderground v.1.15,2013-02-10 16:34:00,
2013-02-10 08:35:00,36.8,32.4,30.15,NNW,345,2.0,3.0,84,0.00,,,0.00,Wunderground v.1.15,2013-02-10 16:35:00,
2013-02-10 08:36:00,36.8,32.4,30.16,NNW,345,1.0,3.0,84,0.00,,,0.00,Wunderground v.1.15,2013-02-10 16:36:00,
2013-02-10 08:40:00,37.0,32.6,30.16,NNW,345,0.0,1.0,84,0.00,,,0.00,Wunderground v.1.15,2013-02-10 16:40:00,
2013-02-10 08:41:00,37.1,33.0,30.16,NNW,345,0.0,1.0,85,0.00,,,0.00,Wunderground v.1.15,2013-02-10 16:41:00,
2013-02-10 08:42:00,37.2,32.8,30.16,NNW,345,0.0,1.0,84,0.00,,,0.00,Wunderground v.1.15,2013-02-10 16:42:00,
2013-02-10 08:45:00,37.6,33.5,30.16,NNW,345,0.0,1.0,85,0.00,,,0.00,Wunderground v.1.15,2013-02-10 16:45:00,
2013-02-10 08:46:00,37.8,33.4,30.16,NNW,345,2.0,2.0,84,0.00,,,0.00,Wunderground v.1.15,2013-02-10 16:46:00,
2013-02-10 08:47:00,37.9,33.5,30.16,NNW,345,2.0,2.0,84,0.00,,,0.00,Wunderground v.1.15,2013-02-10 16:47:00,
2013-02-10 08:50:00,38.4,34.0,30.16,NNW,345,1.0,1.0,84,0.00,,,0.00,Wunderground v.1.15,2013-02-10 16:50:00,
2013-02-10 08:52:00,38.7,34.3,30.16,NNW,345,1.0,1.0,84,0.00,,,0.00,Wunderground v.1.15,2013-02-10 16:52:00,
2013-02-10 08:55:00,39.3,34.6,30.16,NNW,345,0.0,2.0,83,0.00,,,0.00,Wunderground v.1.15,2013-02-10 16:55:00,
2013-02-10 08:56:00,39.5,34.8,30.16,NNW,345,2.0,2.0,83,0.00,,,0.00,Wunderground v.1.15,2013-02-10 16:56:00,
2013-02-10 08:57:00,39.6,34.9,30.16,NNW,345,1.0,3.0,83,0.00,,,0.00,Wunderground v.1.15,2013-02-10 16:57:00,
2013-02-10 09:00:00,40.1,35.0,30.16,NNW,345,1.0,2.0,82,0.00,,,0.00,Wunderground v.1.15,2013-02-10 17:00:00,
2013-02-10 09:01:00,40.3,35.2,30.16,NNW,345,1.0,3.0,82,0.00,,,0.00,Wunderground v.1.15,2013-02-10 17:01:00,
2013-02-10 09:02:00,40.4,35.3,30.16,NNW,345,2.0,3.0,82,0.00,,,0.00,Wunderground v.1.15,2013-02-10 17:02:00,
2013-02-10 09:05:00,40.5,35.1,30.16,NNW,345,0.0,3.0,81,0.00,,,0.00,Wunderground v.1.15,2013-02-10 17:05:00,
2013-02-10 09:06:00,40.6,35.5,30.16,NNW,345,0.0,3.0,82,0.00,,,0.00,Wunderground v.1.15,2013-02-10 17:06:00,
2013-02-10 09:07:00,40.7,35.6,30.16,NNW,345,0.0,3.0,82,0.00,,,0.00,Wunderground v.1.15,2013-02-10 17:07:00,
2013-02-10 09:10:00,41.1,36.0,30.16,NNW,345,1.0,1.0,82,0.00,,,0.00,Wunderground v.1.15,2013-02-10 17:10:00,
2013-02-10 09:11:00,41.2,35.8,30.16,NNW,345,0.0,1.0,81,0.00,,,0.00,Wunderground v.1.15,2013-02-10 17:11:00,
2013-02-10 09:12:00,41.3,36.2,30.16,NNW,345,0.0,1.0,82,0.00,,,0.00,Wunderground v.1.15,2013-02-10 17:12:00,
2013-02-10 09:15:00,41.8,36.4,30.16,NNW,345,1.0,1.0,81,0.00,,,0.00,Wunderground v.1.15,2013-02-10 17:15:00,
2013-02-10 09:16:00,42.0,36.3,30.16,NNW,345,0.0,1.0,80,0.00,,,0.00,Wunderground v.1.15,2013-02-10 17:16:00,
2013-02-10 09:17:00,42.2,36.5,30.16,NNW,345,0.0,1.0,80,0.00,,,0.00,Wunderground v.1.15,2013-02-10 17:17:00,
2013-02-10 09:18:00,42.4,36.7,30.16,NNW,345,0.0,1.0,80,0.00,,,0.00,Wunderground v.1.15,2013-02-10 17:18:00,
2013-02-10 09:20:00,42.8,36.7,30.16,NNW,345,0.0,0.0,79,0.00,,,0.00,Wunderground v.1.15,2013-02-10 17:20:00,
2013-02-10 09:21:00,43.0,36.6,30.16,NNW,345,0.0,1.0,78,0.00,,,0.00,Wunderground v.1.15,2013-02-10 17:21:00,
2013-02-10 09:22:00,43.2,36.8,30.15,NNW,345,0.0,1.0,78,0.00,,,0.00,Wunderground v.1.15,2013-02-10 17:22:00,
2013-02-10 09:23:00,43.3,36.9,30.15,NNW,345,1.0,1.0,78,0.00,,,0.00,Wunderground v.1.15,2013-02-10 17:23:00,
2013-02-10 09:25:00,43.6,36.5,30.15,NNW,345,0.0,1.0,76,0.00,,,0.00,Wunderground v.1.15,2013-02-10 17:25:00,
2013-02-10 09:27:00,43.7,36.0,30.15,NNW,345,0.0,1.0,74,0.00,,,0.00,Wunderground v.1.15,2013-02-10 17:27:00,
2013-02-10 09:28:00,43.8,35.7,30.15,NNW,345,1.0,1.0,73,0.00,,,0.00,Wunderground v.1.15,2013-02-10 17:28:00,
2013-02-10 09:30:00,44.1,35.6,30.15,NNW,345,0.0,0.0,72,0.00,,,0.00,Wunderground v.1.15,2013-02-10 17:30:00,
2013-02-10 09:32:00,44.2,35.0,30.15,NNW,345,1.0,2.0,70,0.00,,,0.00,Wunderground v.1.15,2013-02-10 17:32:00,
2013-02-10 09:33:00,44.2,35.0,30.15,NNW,345,0.0,2.0,70,0.00,,,0.00,Wunderground v.1.15,2013-02-10 17:33:00,
2013-02-10 09:35:00,44.5,35.3,30.15,NNW,345,0.0,2.0,70,0.00,,,0.00,Wunderground v.1.15,2013-02-10 17:35:00,
2013-02-10 09:37:00,44.7,35.1,30.15,NNW,345,0.0,2.0,69,0.00,,,0.00,Wunderground v.1.15,2013-02-10 17:37:00,
2013-02-10 09:38:00,44.8,35.2,30.15,NNW,345,0.0,2.0,69,0.00,,,0.00,Wunderground v.1.15,2013-02-10 17:38:00,
2013-02-10 09:40:00,45.0,35.8,30.15,NNW,345,1.0,2.0,70,0.00,,,0.00,Wunderground v.1.15,2013-02-10 17:40:00,
2013-02-10 09:42:00,45.1,35.9,30.15,NNW,345,1.0,2.0,70,0.00,,,0.00,Wunderground v.1.15,2013-02-10 17:42:00,
2013-02-10 09:43:00,45.1,35.9,30.15,NNW,345,0.0,2.0,70,0.00,,,0.00,Wunderground v.1.15,2013-02-10 17:43:00,
2013-02-10 09:44:00,45.1,35.9,30.15,NNW,345,2.0,2.0,70,0.00,,,0.00,Wunderground v.1.15,2013-02-10 17:44:00,
2013-02-10 09:45:00,45.2,36.0,30.15,NNW,345,0.0,2.0,70,0.00,,,0.00,Wunderground v.1.15,2013-02-10 17:45:00,
2013-02-10 09:47:00,45.2,36.4,30.15,NNW,345,1.0,3.0,71,0.00,,,0.00,Wunderground v.1.15,2013-02-10 17:47:00,
2013-02-10 09:48:00,45.3,36.4,30.15,NNW,345,0.0,3.0,71,0.00,,,0.00,Wunderground v.1.15,2013-02-10 17:48:00,
2013-02-10 09:49:00,45.3,36.4,30.15,NNW,345,0.0,3.0,71,0.00,,,0.00,Wunderground v.1.15,2013-02-10 17:49:00,
2013-02-10 09:51:00,45.4,36.5,30.15,NNW,345,2.0,2.0,71,0.00,,,0.00,Wunderground v.1.15,2013-02-10 17:51:00,
2013-02-10 09:52:00,45.4,36.9,30.15,NNW,345,2.0,3.0,72,0.00,,,0.00,Wunderground v.1.15,2013-02-10 17:52:00,
2013-02-10 09:53:00,45.5,37.0,30.15,NNW,345,1.0,3.0,72,0.00,,,0.00,Wunderground v.1.15,2013-02-10 17:53:00,
2013-02-10 09:54:00,45.5,37.0,30.15,NNW,345,2.0,3.0,72,0.00,,,0.00,Wunderground v.1.15,2013-02-10 17:54:00,
2013-02-10 09:56:00,45.6,37.1,30.15,NNW,345,1.0,3.0,72,0.00,,,0.00,Wunderground v.1.15,2013-02-10 17:56:00,
2013-02-10 09:57:00,45.6,37.1,30.15,NNW,345,0.0,3.0,72,0.00,,,0.00,Wunderground v.1.15,2013-02-10 17:57:00,
2013-02-10 09:58:00,45.7,37.2,30.15,NNW,345,1.0,3.0,72,0.00,,,0.00,Wunderground v.1.15,2013-02-10 17:58:00,
2013-02-10 09:59:00,45.6,37.1,30.15,NNW,345,1.0,3.0,72,0.00,,,0.00,Wunderground v.1.15,2013-02-10 17:59:00,
2013-02-10 10:01:00,45.7,37.2,30.15,NNW,345,2.0,2.0,72,0.00,,,0.00,Wunderground v.1.15,2013-02-10 18:01:00,
2013-02-10 10:03:00,45.7,37.2,30.15,NNW,345,1.0,3.0,72,0.00,,,0.00,Wunderground v.1.15,2013-02-10 18:03:00,
2013-02-10 10:04:00,45.8,37.6,30.15,NNW,347,2.0,4.0,73,0.00,,,0.00,Wunderground v.1.15,2013-02-10 18:04:00,
2013-02-10 10:06:00,45.9,37.4,30.15,NNE,24,4.0,4.0,72,0.00,,,0.00,Wunderground v.1.15,2013-02-10 18:06:00,
2013-02-10 10:08:00,46.0,37.5,30.15,NNE,30,3.0,4.0,72,0.00,,,0.00,Wunderground v.1.15,2013-02-10 18:08:00,
2013-02-10 10:09:00,46.1,37.6,30.15,NNE,31,2.0,4.0,72,0.00,,,0.00,Wunderground v.1.15,2013-02-10 18:09:00,
2013-02-10 10:12:00,46.3,38.1,30.15,NE,39,3.0,3.0,73,0.00,,,0.00,Wunderground v.1.15,2013-02-10 18:12:00,
2013-02-10 10:13:00,46.5,38.3,30.15,NE,41,2.0,4.0,73,0.00,,,0.00,Wunderground v.1.15,2013-02-10 18:13:00,
2013-02-10 10:14:00,46.6,38.4,30.15,ENE,76,4.0,5.0,73,0.00,,,0.00,Wunderground v.1.15,2013-02-10 18:14:00,
2013-02-10 10:17:00,46.9,38.7,30.15,East,85,3.0,6.0,73,0.00,,,0.00,Wunderground v.1.15,2013-02-10 18:17:00,
2013-02-10 10:18:00,47.1,39.2,30.15,ESE,102,2.0,7.0,74,0.00,,,0.00,Wunderground v.1.15,2013-02-10 18:18:00,
2013-02-10 10:20:00,47.2,39.0,30.15,ESE,106,1.0,3.0,73,0.00,,,0.00,Wunderground v.1.15,2013-02-10 18:20:00,
2013-02-10 10:22:00,47.3,38.7,30.15,ESE,115,2.0,4.0,72,0.00,,,0.00,Wunderground v.1.15,2013-02-10 18:22:00,
2013-02-10 10:23:00,47.3,39.1,30.15,SE,129,3.0,4.0,73,0.00,,,0.00,Wunderground v.1.15,2013-02-10 18:23:00,
2013-02-10 10:24:00,47.3,39.1,30.15,SE,133,3.0,4.0,73,0.00,,,0.00,Wunderground v.1.15,2013-02-10 18:24:00,
2013-02-10 10:25:00,47.3,39.1,30.15,SE,139,1.0,4.0,73,0.00,,,0.00,Wunderground v.1.15,2013-02-10 18:25:00,
2013-02-10 10:27:00,47.3,39.1,30.15,SE,135,4.0,5.0,73,0.00,,,0.00,Wunderground v.1.15,2013-02-10 18:27:00,
2013-02-10 10:28:00,47.4,39.2,30.15,SE,134,1.0,5.0,73,0.00,,,0.00,Wunderground v.1.15,2013-02-10 18:28:00,
2013-02-10 10:29:00,47.4,39.2,30.15,SE,134,2.0,5.0,73,0.00,,,0.00,Wunderground v.1.15,2013-02-10 18:29:00,
2013-02-10 10:30:00,47.4,38.8,30.15,SE,134,3.0,3.0,72,0.00,,,0.00,Wunderground v.1.15,2013-02-10 18:30:00,
2013-02-10 10:32:00,47.6,39.0,30.15,SE,138,2.0,4.0,72,0.00,,,0.00,Wunderground v.1.15,2013-02-10 18:32:00,
2013-02-10 10:33:00,47.6,39.0,30.15,SSE,152,1.0,4.0,72,0.00,,,0.00,Wunderground v.1.15,2013-02-10 18:33:00,
2013-02-10 10:34:00,47.6,39.0,30.15,SSE,152,1.0,4.0,72,0.00,,,0.00,Wunderground v.1.15,2013-02-10 18:34:00,
2013-02-10 10:35:00,47.6,39.0,30.15,SSE,152,3.0,4.0,72,0.00,,,0.00,Wunderground v.1.15,2013-02-10 18:35:00,
2013-02-10 10:37:00,47.8,39.2,30.14,South,177,4.0,4.0,72,0.00,,,0.00,Wunderground v.1.15,2013-02-10 18:37:00,
2013-02-10 10:39:00,47.8,39.2,30.15,South,172,2.0,4.0,72,0.00,,,0.00,Wunderground v.1.15,2013-02-10 18:39:00,
2013-02-10 10:40:00,47.9,38.9,30.15,South,174,3.0,4.0,71,0.00,,,0.00,Wunderground v.1.15,2013-02-10 18:40:00,
2013-02-10 10:42:00,47.9,38.9,30.14,South,173,1.0,4.0,71,0.00,,,0.00,Wunderground v.1.15,2013-02-10 18:42:00,
2013-02-10 10:44:00,48.1,39.1,30.14,SSE,153,3.0,6.0,71,0.00,,,0.00,Wunderground v.1.15,2013-02-10 18:44:00,
2013-02-10 10:45:00,48.3,39.3,30.14,SSE,154,1.0,6.0,71,0.00,,,0.00,Wunderground v.1.15,2013-02-10 18:45:00,
2013-02-10 10:48:00,48.5,39.2,30.14,South,170,5.0,6.0,70,0.00,,,0.00,Wunderground v.1.15,2013-02-10 18:48:00,
2013-02-10 10:49:00,48.5,39.2,30.14,South,180,5.0,6.0,70,0.00,,,0.00,Wunderground v.1.15,2013-02-10 18:49:00,
2013-02-10 10:50:00,48.5,38.8,30.14,South,170,3.0,4.0,69,0.00,,,0.00,Wunderground v.1.15,2013-02-10 18:50:00,
2013-02-10 10:53:00,48.5,38.8,30.14,South,170,4.0,4.0,69,0.00,,,0.00,Wunderground v.1.15,2013-02-10 18:53:00,
2013-02-10 10:54:00,48.6,39.3,30.14,SSE,162,2.0,4.0,70,0.00,,,0.00,Wunderground v.1.15,2013-02-10 18:54:00,
2013-02-10 10:56:00,48.7,39.4,30.14,SSE,153,1.0,5.0,70,0.00,,,0.00,Wunderground v.1.15,2013-02-10 18:56:00,
2013-02-10 10:58:00,48.9,39.5,30.14,SSE,147,2.0,5.0,70,0.00,,,0.00,Wunderground v.1.15,2013-02-10 18:58:00,
2013-02-10 10:59:00,49.0,39.3,30.14,SSE,147,2.0,5.0,69,0.00,,,0.00,Wunderground v.1.15,2013-02-10 18:59:00,
2013-02-10 11:01:00,49.2,39.5,30.14,SSE,153,5.0,5.0,69,0.00,,,0.00,Wunderground v.1.15,2013-02-10 19:01:00,
2013-02-10 11:03:00,49.4,40.0,30.14,SE,145,2.0,6.0,70,0.00,,,0.00,Wunderground v.1.15,2013-02-10 19:03:00,
2013-02-10 11:04:00,49.4,40.0,30.14,SE,145,2.0,6.0,70,0.00,,,0.00,Wunderground v.1.15,2013-02-10 19:04:00,
2013-02-10 11:06:00,49.5,40.1,30.13,SSE,165,3.0,6.0,70,0.00,,,0.00,Wunderground v.1.15,2013-02-10 19:06:00,
2013-02-10 11:08:00,49.5,40.5,30.14,SSE,151,2.0,6.0,71,0.00,,,0.00,Wunderground v.1.15,2013-02-10 19:08:00,
2013-02-10 11:09:00,49.5,40.5,30.13,SSE,151,3.0,6.0,71,0.00,,,0.00,Wunderground v.1.15,2013-02-10 19:09:00,
2013-02-10 11:10:00,49.6,40.9,30.13,SSE,156,5.0,5.0,72,0.00,,,0.00,Wunderground v.1.15,2013-02-10 19:10:00,
2013-02-10 11:11:00,49.7,40.7,30.13,SSE,162,2.0,5.0,71,0.00,,,0.00,Wunderground v.1.15,2013-02-10 19:11:00,
2013-02-10 11:13:00,49.9,40.9,30.13,South,172,2.0,6.0,71,0.00,,,0.00,Wunderground v.1.15,2013-02-10 19:13:00,
2013-02-10 11:14:00,49.9,40.9,30.13,South,177,3.0,6.0,71,0.00,,,0.00,Wunderground v.1.15,2013-02-10 19:14:00,
2013-02-10 11:15:00,49.9,40.9,30.13,South,176,3.0,6.0,71,0.00,,,0.00,Wunderground v.1.15,2013-02-10 19:15:00,
2013-02-10 11:16:00,50.1,41.1,30.13,SSE,168,2.0,6.0,71,0.00,,,0.00,Wunderground v.1.15,2013-02-10 19:16:00,
2013-02-10 11:19:00,50.3,40.9,30.13,South,174,2.0,6.0,70,0.00,,,0.00,Wunderground v.1.15,2013-02-10 19:19:00,
2013-02-10 11:20:00,50.4,41.0,30.13,South,174,1.0,3.0,70,0.00,,,0.00,Wunderground v.1.15,2013-02-10 19:20:00,
2013-02-10 11:21:00,50.5,41.1,30.13,South,170,3.0,4.0,70,0.00,,,0.00,Wunderground v.1.15,2013-02-10 19:21:00,
2013-02-10 11:24:00,50.6,40.8,30.13,SSW,199,4.0,6.0,69,0.00,,,0.00,Wunderground v.1.15,2013-02-10 19:24:00,
2013-02-10 11:25:00,50.5,40.7,30.13,SSW,208,5.0,6.0,69,0.00,,,0.00,Wunderground v.1.15,2013-02-10 19:25:00,
2013-02-10 11:26:00,50.5,40.7,30.13,SSW,210,3.0,7.0,69,0.00,,,0.00,Wunderground v.1.15,2013-02-10 19:26:00,
2013-02-10 11:29:00,50.7,40.9,30.13,South,191,6.0,7.0,69,0.00,,,0.00,Wunderground v.1.15,2013-02-10 19:29:00,
2013-02-10 11:31:00,50.8,41.0,30.13,SSW,196,2.0,5.0,69,0.00,,,0.00,Wunderground v.1.15,2013-02-10 19:31:00,
2013-02-10 11:34:00,50.8,41.0,30.12,SSW,198,5.0,7.0,69,0.00,,,0.00,Wunderground v.1.15,2013-02-10 19:34:00,
2013-02-10 11:35:00,50.8,41.0,30.12,SSW,196,1.0,7.0,69,0.00,,,0.00,Wunderground v.1.15,2013-02-10 19:35:00,
2013-02-10 11:36:00,50.9,41.1,30.12,SSW,196,5.0,7.0,69,0.00,,,0.00,Wunderground v.1.15,2013-02-10 19:36:00,
2013-02-10 11:39:00,51.1,41.3,30.12,SSW,207,2.0,7.0,69,0.00,,,0.00,Wunderground v.1.15,2013-02-10 19:39:00,
2013-02-10 11:40:00,51.1,40.9,30.12,SSW,207,3.0,4.0,68,0.00,,,0.00,Wunderground v.1.15,2013-02-10 19:40:00,
2013-02-10 11:41:00,51.2,41.4,30.12,SSW,207,3.0,4.0,69,0.00,,,0.00,Wunderground v.1.15,2013-02-10 19:41:00,
2013-02-10 11:44:00,51.3,41.1,30.12,SW,218,6.0,6.0,68,0.00,,,0.00,Wunderground v.1.15,2013-02-10 19:44:00,
2013-02-10 11:45:00,51.4,41.2,30.12,SW,219,6.0,6.0,68,0.00,,,0.00,Wunderground v.1.15,2013-02-10 19:45:00,
2013-02-10 11:46:00,51.4,41.2,30.11,SW,219,4.0,6.0,68,0.00,,,0.00,Wunderground v.1.15,2013-02-10 19:46:00,
2013-02-10 11:47:00,51.4,41.2,30.11,SW,222,6.0,6.0,68,0.00,,,0.00,Wunderground v.1.15,2013-02-10 19:47:00,
2013-02-10 11:50:00,51.6,41.8,30.11,South,189,4.0,4.0,69,0.00,,,0.00,Wunderground v.1.15,2013-02-10 19:50:00,
2013-02-10 11:51:00,51.8,41.6,30.11,South,189,4.0,4.0,68,0.00,,,0.00,Wunderground v.1.15,2013-02-10 19:51:00,
2013-02-10 11:52:00,51.8,41.6,30.11,South,189,3.0,5.0,68,0.00,,,0.00,Wunderground v.1.15,2013-02-10 19:52:00,
2013-02-10 11:55:00,52.0,41.4,30.10,South,191,2.0,5.0,67,0.00,,,0.00,Wunderground v.1.15,2013-02-10 19:55:00,
2013-02-10 11:56:00,52.2,42.0,30.10,South,191,5.0,6.0,68,0.00,,,0.00,Wunderground v.1.15,2013-02-10 19:56:00,
2013-02-10 11:57:00,52.3,41.7,30.10,South,191,4.0,6.0,67,0.00,,,0.00,Wunderground v.1.15,2013-02-10 19:57:00,
2013-02-10 12:00:00,52.6,41.9,30.10,SSW,193,5.0,5.0,67,0.00,,,0.00,Wunderground v.1.15,2013-02-10 20:00:00,
2013-02-10 12:01:00,52.6,41.9,30.10,SSW,195,1.0,5.0,67,0.00,,,0.00,Wunderground v.1.15,2013-02-10 20:01:00,
2013-02-10 12:02:00,52.7,42.0,30.10,South,187,6.0,6.0,67,0.00,,,0.00,Wunderground v.1.15,2013-02-10 20:02:00,
2013-02-10 12:05:00,52.8,42.1,30.10,South,191,3.0,6.0,67,0.00,,,0.00,Wunderground v.1.15,2013-02-10 20:05:00,
2013-02-10 12:06:00,53.0,42.3,30.10,South,177,6.0,7.0,67,0.00,,,0.00,Wunderground v.1.15,2013-02-10 20:06:00,
2013-02-10 12:07:00,53.0,42.3,30.10,South,180,5.0,7.0,67,0.00,,,0.00,Wunderground v.1.15,2013-02-10 20:07:00,
2013-02-10 12:10:00,53.0,41.9,30.10,SSE,153,6.0,6.0,66,0.00,,,0.00,Wunderground v.1.15,2013-02-10 20:10:00,
2013-02-10 12:11:00,53.0,42.3,30.10,SSE,159,5.0,8.0,67,0.00,,,0.00,Wunderground v.1.15,2013-02-10 20:11:00,
2013-02-10 12:12:00,53.1,42.4,30.10,SSE,161,6.0,8.0,67,0.00,,,0.00,Wunderground v.1.15,2013-02-10 20:12:00,
2013-02-10 12:15:00,53.2,42.1,30.09,South,172,4.0,9.0,66,0.00,,,0.00,Wunderground v.1.15,2013-02-10 20:15:00,
2013-02-10 12:16:00,53.3,41.8,30.09,South,174,3.0,9.0,65,0.00,,,0.00,Wunderground v.1.15,2013-02-10 20:16:00,
2013-02-10 12:17:00,53.3,41.8,30.09,South,171,3.0,9.0,65,0.00,,,0.00,Wunderground v.1.15,2013-02-10 20:17:00,
2013-02-10 12:21:00,53.2,41.3,30.09,SSW,199,5.0,6.0,64,0.00,,,0.00,Wunderground v.1.15,2013-02-10 20:21:00,
2013-02-10 12:22:00,53.2,41.7,30.09,SSW,203,2.0,6.0,65,0.00,,,0.00,Wunderground v.1.15,2013-02-10 20:22:00,
2013-02-10 12:23:00,53.3,41.8,30.09,SSE,158,7.0,7.0,65,0.00,,,0.00,Wunderground v.1.15,2013-02-10 20:23:00,
2013-02-10 12:26:00,53.3,41.4,30.08,SSE,154,0.0,7.0,64,0.00,,,0.00,Wunderground v.1.15,2013-02-10 20:26:00,
2013-02-10 12:27:00,53.5,41.6,30.08,South,181,4.0,7.0,64,0.00,,,0.00,Wunderground v.1.15,2013-02-10 20:27:00,
2013-02-10 12:28:00,53.6,41.7,30.08,South,182,3.0,7.0,64,0.00,,,0.00,Wunderground v.1.15,2013-02-10 20:28:00,
2013-02-10 12:31:00,53.9,42.0,30.08,SSE,163,4.0,5.0,64,0.00,,,0.00,Wunderground v.1.15,2013-02-10 20:31:00,
2013-02-10 12:33:00,54.0,41.7,30.08,SSE,164,3.0,5.0,63,0.00,,,0.00,Wunderground v.1.15,2013-02-10 20:33:00,
2013-02-10 12:36:00,54.2,41.5,30.08,SSE,147,7.0,7.0,62,0.00,,,0.00,Wunderground v.1.15,2013-02-10 20:36:00,
2013-02-10 12:38:00,54.2,41.0,30.08,SSW,195,5.0,7.0,61,0.00,,,0.00,Wunderground v.1.15,2013-02-10 20:38:00,
2013-02-10 12:41:00,54.4,41.2,30.08,SSE,168,2.0,6.0,61,0.00,,,0.00,Wunderground v.1.15,2013-02-10 20:41:00,
2013-02-10 12:42:00,54.5,41.3,30.08,SSE,147,6.0,7.0,61,0.00,,,0.00,Wunderground v.1.15,2013-02-10 20:42:00,
2013-02-10 12:43:00,54.5,41.7,30.08,South,180,6.0,7.0,62,0.00,,,0.00,Wunderground v.1.15,2013-02-10 20:43:00,
2013-02-10 12:44:00,54.6,41.4,30.08,SSE,168,5.0,7.0,61,0.00,,,0.00,Wunderground v.1.15,2013-02-10 20:44:00,
2013-02-10 12:46:00,54.8,41.2,30.08,South,175,4.0,8.0,60,0.00,,,0.00,Wunderground v.1.15,2013-02-10 20:46:00,
2013-02-10 12:47:00,54.8,41.6,30.08,SE,139,8.0,8.0,61,0.00,,,0.00,Wunderground v.1.15,2013-02-10 20:47:00,
2013-02-10 12:48:00,54.8,41.2,30.08,SE,135,8.0,8.0,60,0.00,,,0.00,Wunderground v.1.15,2013-02-10 20:48:00,
2013-02-10 12:49:00,54.8,41.6,30.08,SE,133,7.0,8.0,61,0.00,,,0.00,Wunderground v.1.15,2013-02-10 20:49:00,
2013-02-10 12:52:00,54.8,41.2,30.08,SE,141,6.0,6.0,60,0.00,,,0.00,Wunderground v.1.15,2013-02-10 20:52:00,
2013-02-10 12:53:00,54.9,41.3,30.08,SSE,162,4.0,7.0,60,0.00,,,0.00,Wunderground v.1.15,2013-02-10 20:53:00,
2013-02-10 12:54:00,54.9,40.8,30.08,SSE,152,4.0,7.0,59,0.00,,,0.00,Wunderground v.1.15,2013-02-10 20:54:00,
2013-02-10 12:57:00,55.0,40.9,30.08,SSE,158,3.0,7.0,59,0.00,,,0.00,Wunderground v.1.15,2013-02-10 20:57:00,
2013-02-10 12:59:00,55.0,40.9,30.08,SSE,161,5.0,7.0,59,0.00,,,0.00,Wunderground v.1.15,2013-02-10 20:59:00,
2013-02-10 13:02:00,55.2,41.1,30.07,SSE,149,7.0,9.0,59,0.00,,,0.00,Wunderground v.1.15,2013-02-10 21:02:00,
2013-02-10 13:04:00,55.2,41.1,30.07,South,175,7.0,9.0,59,0.00,,,0.00,Wunderground v.1.15,2013-02-10 21:04:00,
2013-02-10 13:07:00,55.2,41.1,30.07,South,179,5.0,10.0,59,0.00,,,0.00,Wunderground v.1.15,2013-02-10 21:07:00,
2013-02-10 13:09:00,55.2,41.1,30.07,SSE,158,6.0,10.0,59,0.00,,,0.00,Wunderground v.1.15,2013-02-10 21:09:00,
2013-02-10 13:12:00,55.3,41.2,30.07,SSE,147,8.0,8.0,59,0.00,,,0.00,Wunderground v.1.15,2013-02-10 21:12:00,
2013-02-10 13:14:00,55.4,41.7,30.07,SSE,168,6.0,9.0,60,0.00,,,0.00,Wunderground v.1.15,2013-02-10 21:14:00,
2013-02-10 13:17:00,55.6,41.5,30.06,South,180,5.0,9.0,59,0.00,,,0.00,Wunderground v.1.15,2013-02-10 21:17:00,
2013-02-10 13:19:00,55.7,42.0,30.06,SSE,162,4.0,9.0,60,0.00,,,0.00,Wunderground v.1.15,2013-02-10 21:19:00,
2013-02-10 13:20:00,55.7,42.0,30.06,SSE,158,4.0,6.0,60,0.00,,,0.00,Wunderground v.1.15,2013-02-10 21:20:00,
2013-02-10 13:23:00,55.8,42.1,30.06,SSE,154,5.0,8.0,60,0.00,,,0.00,Wunderground v.1.15,2013-02-10 21:23:00,
2013-02-10 13:25:00,55.9,41.8,30.06,SSE,158,6.0,8.0,59,0.00,,,0.00,Wunderground v.1.15,2013-02-10 21:25:00,
2013-02-10 13:28:00,56.0,41.4,30.06,South,179,2.0,8.0,58,0.00,,,0.00,Wunderground v.1.15,2013-02-10 21:28:00,
2013-02-10 13:30:00,56.0,41.4,30.06,South,172,2.0,5.0,58,0.00,,,0.00,Wunderground v.1.15,2013-02-10 21:30:00,
2013-02-10 13:33:00,56.2,42.1,30.06,South,177,2.0,5.0,59,0.00,,,0.00,Wunderground v.1.15,2013-02-10 21:33:00,
2013-02-10 13:34:00,56.3,42.1,30.06,South,181,3.0,5.0,59,0.00,,,0.00,Wunderground v.1.15,2013-02-10 21:34:00,
2013-02-10 13:35:00,56.3,42.1,30.06,South,181,2.0,6.0,59,0.00,,,0.00,Wunderground v.1.15,2013-02-10 21:35:00,
2013-02-10 13:38:00,56.6,42.4,30.06,SSE,160,6.0,6.0,59,0.00,,,0.00,Wunderground v.1.15,2013-02-10 21:38:00,
2013-02-10 13:39:00,56.6,42.0,30.06,SE,143,4.0,6.0,58,0.00,,,0.00,Wunderground v.1.15,2013-02-10 21:39:00,
2013-02-10 13:40:00,56.6,42.4,30.06,SE,143,4.0,4.0,59,0.00,,,0.00,Wunderground v.1.15,2013-02-10 21:40:00,
2013-02-10 13:41:00,56.6,42.4,30.06,SE,143,4.0,5.0,59,0.00,,,0.00,Wunderground v.1.15,2013-02-10 21:41:00,
2013-02-10 13:44:00,56.9,43.2,30.06,SE,145,3.0,7.0,60,0.00,,,0.00,Wunderground v.1.15,2013-02-10 21:44:00,
2013-02-10 13:45:00,57.0,42.4,30.06,SSE,154,3.0,7.0,58,0.00,,,0.00,Wunderground v.1.15,2013-02-10 21:45:00,
2013-02-10 13:46:00,57.0,42.4,30.06,SE,145,5.0,7.0,58,0.00,,,0.00,Wunderground v.1.15,2013-02-10 21:46:00,
2013-02-10 13:49:00,57.1,42.5,30.05,SE,131,4.0,7.0,58,0.00,,,0.00,Wunderground v.1.15,2013-02-10 21:49:00,
2013-02-10 13:50:00,57.2,42.5,30.05,SSE,157,6.0,7.0,58,0.00,,,0.00,Wunderground v.1.15,2013-02-10 21:50:00,
2013-02-10 13:51:00,57.2,42.5,30.05,SSE,162,4.0,7.0,58,0.00,,,0.00,Wunderground v.1.15,2013-02-10 21:51:00,
2013-02-10 13:54:00,57.3,42.2,30.05,SSE,151,5.0,9.0,57,0.00,,,0.00,Wunderground v.1.15,2013-02-10 21:54:00,
2013-02-10 13:55:00,57.4,42.7,30.05,SE,145,5.0,9.0,58,0.00,,,0.00,Wunderground v.1.15,2013-02-10 21:55:00,
2013-02-10 13:56:00,57.4,42.7,30.05,SE,143,5.0,9.0,58,0.00,,,0.00,Wunderground v.1.15,2013-02-10 21:56:00,
2013-02-10 13:59:00,57.6,42.5,30.05,SE,133,7.0,9.0,57,0.00,,,0.00,Wunderground v.1.15,2013-02-10 21:59:00,
2013-02-10 14:00:00,57.7,43.0,30.05,SE,131,5.0,5.0,58,0.00,,,0.00,Wunderground v.1.15,2013-02-10 22:00:00,
2013-02-10 14:01:00,57.8,43.1,30.05,SE,145,5.0,7.0,58,0.00,,,0.00,Wunderground v.1.15,2013-02-10 22:01:00,
2013-02-10 14:04:00,57.9,42.3,30.05,SSE,147,6.0,11.0,56,0.00,,,0.00,Wunderground v.1.15,2013-02-10 22:04:00,
2013-02-10 14:05:00,57.9,42.3,30.05,SE,140,7.0,11.0,56,0.00,,,0.00,Wunderground v.1.15,2013-02-10 22:05:00,
2013-02-10 14:06:00,57.9,42.8,30.05,SE,134,8.0,11.0,57,0.00,,,0.00,Wunderground v.1.15,2013-02-10 22:06:00,
2013-02-10 14:09:00,58.1,42.5,30.05,South,179,7.0,11.0,56,0.00,,,0.00,Wunderground v.1.15,2013-02-10 22:09:00,
2013-02-10 14:10:00,58.1,42.5,30.05,SSE,167,6.0,6.0,56,0.00,,,0.00,Wunderground v.1.15,2013-02-10 22:10:00,
2013-02-10 14:11:00,58.2,42.1,30.05,SSE,156,5.0,7.0,55,0.00,,,0.00,Wunderground v.1.15,2013-02-10 22:11:00,
2013-02-10 14:14:00,58.2,41.1,30.05,SSE,154,9.0,10.0,53,0.00,,,0.00,Wunderground v.1.15,2013-02-10 22:14:00,
2013-02-10 14:15:00,58.1,41.0,30.05,SSE,150,6.0,10.0,53,0.00,,,0.00,Wunderground v.1.15,2013-02-10 22:15:00,
2013-02-10 14:16:00,58.0,41.0,30.05,SE,132,7.0,10.0,53,0.00,,,0.00,Wunderground v.1.15,2013-02-10 22:16:00,
2013-02-10 14:19:00,57.9,41.3,30.05,SE,144,8.0,10.0,54,0.00,,,0.00,Wunderground v.1.15,2013-02-10 22:19:00,
2013-02-10 14:21:00,57.9,41.3,30.05,SE,145,8.0,10.0,54,0.00,,,0.00,Wunderground v.1.15,2013-02-10 22:21:00,
2013-02-10 14:22:00,57.8,40.8,30.04,SSE,147,4.0,10.0,53,0.00,,,0.00,Wunderground v.1.15,2013-02-10 22:22:00,
2013-02-10 14:24:00,58.0,41.0,30.04,SSE,165,6.0,10.0,53,0.00,,,0.00,Wunderground v.1.15,2013-02-10 22:24:00,
2013-02-10 14:26:00,58.1,41.0,30.04,SSE,147,7.0,10.0,53,0.00,,,0.00,Wunderground v.1.15,2013-02-10 22:26:00,
2013-02-10 14:27:00,58.1,41.5,30.04,SE,137,6.0,10.0,54,0.00,,,0.00,Wunderground v.1.15,2013-02-10 22:27:00,
2013-02-10 14:30:00,58.2,41.1,30.04,SSE,160,5.0,6.0,53,0.00,,,0.00,Wunderground v.1.15,2013-02-10 22:30:00,
2013-02-10 14:31:00,58.1,41.0,30.04,SSE,164,5.0,7.0,53,0.00,,,0.00,Wunderground v.1.15,2013-02-10 22:31:00,
2013-02-10 14:32:00,58.1,41.0,30.04,SSE,157,6.0,7.0,53,0.00,,,0.00,Wunderground v.1.15,2013-02-10 22:32:00,
2013-02-10 14:35:00,58.2,41.1,30.04,SSE,162,5.0,10.0,53,0.00,,,0.00,Wunderground v.1.15,2013-02-10 22:35:00,
2013-02-10 14:36:00,58.2,40.6,30.04,SSE,159,8.0,10.0,52,0.00,,,0.00,Wunderground v.1.15,2013-02-10 22:36:00,
2013-02-10 14:37:00,58.1,40.1,30.04,SSE,147,7.0,10.0,51,0.00,,,0.00,Wunderground v.1.15,2013-02-10 22:37:00,
2013-02-10 14:40:00,58.0,40.5,30.04,South,170,2.0,7.0,52,0.00,,,0.00,Wunderground v.1.15,2013-02-10 22:40:00,
2013-02-10 14:41:00,58.1,41.0,30.04,SE,144,6.0,7.0,53,0.00,,,0.00,Wunderground v.1.15,2013-02-10 22:41:00,
2013-02-10 14:42:00,58.1,40.6,30.04,SE,133,6.0,7.0,52,0.00,,,0.00,Wunderground v.1.15,2013-02-10 22:42:00,
2013-02-10 14:45:00,58.3,41.2,30.04,SE,140,7.0,9.0,53,0.00,,,0.00,Wunderground v.1.15,2013-02-10 22:45:00,
2013-02-10 14:46:00,58.4,40.8,30.04,SE,138,7.0,9.0,52,0.00,,,0.00,Wunderground v.1.15,2013-02-10 22:46:00,
2013-02-10 14:47:00,58.4,40.8,30.04,SSE,159,4.0,9.0,52,0.00,,,0.00,Wunderground v.1.15,2013-02-10 22:47:00,
2013-02-10 14:50:00,58.3,40.2,30.04,South,170,5.0,6.0,51,0.00,,,0.00,Wunderground v.1.15,2013-02-10 22:50:00,
2013-02-10 14:51:00,58.3,40.7,30.04,SSE,159,4.0,8.0,52,0.00,,,0.00,Wunderground v.1.15,2013-02-10 22:51:00,
2013-02-10 14:52:00,58.3,40.2,30.04,SSE,147,10.0,10.0,51,0.00,,,0.00,Wunderground v.1.15,2013-02-10 22:52:00,
2013-02-10 14:55:00,58.4,40.3,30.04,SE,141,5.0,10.0,51,0.00,,,0.00,Wunderground v.1.15,2013-02-10 22:55:00,
2013-02-10 14:56:00,58.4,40.3,30.04,SSE,161,7.0,10.0,51,0.00,,,0.00,Wunderground v.1.15,2013-02-10 22:56:00,
2013-02-10 14:57:00,58.4,40.3,30.04,SSE,154,6.0,10.0,51,0.00,,,0.00,Wunderground v.1.15,2013-02-10 22:57:00,
2013-02-10 15:00:00,58.3,40.2,30.04,SE,132,8.0,8.0,51,0.00,,,0.00,Wunderground v.1.15,2013-02-10 23:00:00,
2013-02-10 15:01:00,58.4,40.8,30.04,SE,145,6.0,9.0,52,0.00,,,0.00,Wunderground v.1.15,2013-02-10 23:01:00,
2013-02-10 15:02:00,58.4,40.8,30.04,SE,145,9.0,11.0,52,0.00,,,0.00,Wunderground v.1.15,2013-02-10 23:02:00,
2013-02-10 15:03:00,58.4,40.8,30.04,SE,145,7.0,11.0,52,0.00,,,0.00,Wunderground v.1.15,2013-02-10 23:03:00,
2013-02-10 15:05:00,58.4,40.8,30.04,SSE,148,5.0,11.0,52,0.00,,,0.00,Wunderground v.1.15,2013-02-10 23:05:00,
2013-02-10 15:06:00,58.5,41.9,30.04,SE,140,8.0,11.0,54,0.00,,,0.00,Wunderground v.1.15,2013-02-10 23:06:00,
2013-02-10 15:08:00,58.6,41.5,30.04,SE,127,5.0,11.0,53,0.00,,,0.00,Wunderground v.1.15,2013-02-10 23:08:00,
2013-02-10 15:10:00,58.8,40.7,30.04,SSE,165,2.0,8.0,51,0.00,,,0.00,Wunderground v.1.15,2013-02-10 23:10:00,
2013-02-10 15:12:00,58.8,40.7,30.04,SSE,157,4.0,8.0,51,0.00,,,0.00,Wunderground v.1.15,2013-02-10 23:12:00,
2013-02-10 15:13:00,58.7,40.6,30.04,SSE,157,7.0,8.0,51,0.00,,,0.00,Wunderground v.1.15,2013-02-10 23:13:00,
2013-02-10 15:15:00,58.6,40.5,30.04,SE,133,8.0,10.0,51,0.00,,,0.00,Wunderground v.1.15,2013-02-10 23:15:00,
2013-02-10 15:17:00,58.6,40.5,30.04,SE,141,5.0,10.0,51,0.00,,,0.00,Wunderground v.1.15,2013-02-10 23:17:00,
2013-02-10 15:18:00,58.5,40.4,30.04,SE,143,6.0,10.0,51,0.00,,,0.00,Wunderground v.1.15,2013-02-10 23:18:00,
2013-02-10 15:19:00,58.5,40.4,30.04,SE,139,6.0,10.0,51,0.00,,,0.00,Wunderground v.1.15,2013-02-10 23:19:00,
2013-02-10 15:21:00,58.6,41.0,30.04,SE,136,8.0,8.0,52,0.00,,,0.00,Wunderground v.1.15,2013-02-10 23:21:00,
2013-02-10 15:22:00,58.6,40.5,30.04,SE,136,5.0,9.0,51,0.00,,,0.00,Wunderground v.1.15,2013-02-10 23:22:00,
2013-02-10 15:23:00,58.6,40.5,30.04,SE,128,6.0,9.0,51,0.00,,,0.00,Wunderground v.1.15,2013-02-10 23:23:00,
2013-02-10 15:24:00,58.6,40.5,30.04,SE,130,4.0,9.0,51,0.00,,,0.00,Wunderground v.1.15,2013-02-10 23:24:00,
2013-02-10 15:26:00,58.7,40.6,30.04,SE,141,4.0,9.0,51,0.00,,,0.00,Wunderground v.1.15,2013-02-10 23:26:00,
2013-02-10 15:27:00,58.8,41.2,30.04,SE,144,5.0,9.0,52,0.00,,,0.00,Wunderground v.1.15,2013-02-10 23:27:00,
2013-02-10 15:28:00,58.8,40.7,30.04,SSE,155,2.0,9.0,51,0.00,,,0.00,Wunderground v.1.15,2013-02-10 23:28:00,
2013-02-10 15:29:00,58.8,40.7,30.04,SSE,154,3.0,9.0,51,0.00,,,0.00,Wunderground v.1.15,2013-02-10 23:29:00,
2013-02-10 15:31:00,59.0,40.9,30.04,SSE,158,1.0,6.0,51,0.00,,,0.00,Wunderground v.1.15,2013-02-10 23:31:00,
2013-02-10 15:32:00,59.0,41.4,30.04,SSE,156,3.0,6.0,52,0.00,,,0.00,Wunderground v.1.15,2013-02-10 23:32:00,
2013-02-10 15:33:00,59.1,41.5,30.04,SSE,167,3.0,6.0,52,0.00,,,0.00,Wunderground v.1.15,2013-02-10 23:33:00,
2013-02-10 15:34:00,59.2,41.6,30.04,SSE,155,5.0,6.0,52,0.00,,,0.00,Wunderground v.1.15,2013-02-10 23:34:00,
2013-02-10 15:36:00,59.3,41.2,30.04,SSE,161,5.0,6.0,51,0.00,,,0.00,Wunderground v.1.15,2013-02-10 23:36:00,
2013-02-10 15:37:00,59.3,41.2,30.04,South,169,6.0,8.0,51,0.00,,,0.00,Wunderground v.1.15,2013-02-10 23:37:00,
2013-02-10 15:38:00,59.4,40.7,30.04,South,170,3.0,8.0,50,0.00,,,0.00,Wunderground v.1.15,2013-02-10 23:38:00,
2013-02-10 15:39:00,59.4,40.7,30.04,South,169,1.0,8.0,50,0.00,,,0.00,Wunderground v.1.15,2013-02-10 23:39:00,
2013-02-10 15:42:00,59.4,40.7,30.04,South,170,3.0,5.0,50,0.00,,,0.00,Wunderground v.1.15,2013-02-10 23:42:00,
2013-02-10 15:43:00,59.4,40.7,30.04,SSE,158,2.0,6.0,50,0.00,,,0.00,Wunderground v.1.15,2013-02-10 23:43:00,
2013-02-10 15:45:00,59.5,41.3,30.05,South,177,3.0,6.0,51,0.00,,,0.00,Wunderground v.1.15,2013-02-10 23:45:00,
2013-02-10 15:47:00,59.5,40.8,30.05,South,178,2.0,6.0,50,0.00,,,0.00,Wunderground v.1.15,2013-02-10 23:47:00,
2013-02-10 15:49:00,59.6,40.9,30.05,South,179,4.0,6.0,50,0.00,,,0.00,Wunderground v.1.15,2013-02-10 23:49:00,
2013-02-10 15:50:00,59.7,41.0,30.05,South,178,2.0,3.0,50,0.00,,,0.00,Wunderground v.1.15,2013-02-10 23:50:00,
2013-02-10 15:52:00,59.8,42.1,30.05,South,173,2.0,4.0,52,0.00,,,0.00,Wunderground v.1.15,2013-02-10 23:52:00,
2013-02-10 15:53:00,59.9,42.2,30.05,SSE,162,3.0,6.0,52,0.00,,,0.00,Wunderground v.1.15,2013-02-10 23:53:00,
2013-02-10 15:55:00,59.8,41.1,30.05,South,174,3.0,6.0,50,0.00,,,0.00,Wunderground v.1.15,2013-02-10 23:55:00,
2013-02-10 15:57:00,59.8,41.1,30.05,South,173,2.0,6.0,50,0.00,,,0.00,Wunderground v.1.15,2013-02-10 23:57:00,
2013-02-10 15:58:00,59.8,41.1,30.04,SSE,168,2.0,6.0,50,0.00,,,0.00,Wunderground v.1.15,2013-02-10 23:58:00,
2013-02-10 16:00:00,59.8,41.1,30.05,SSE,155,4.0,5.0,50,0.00,,,0.00,Wunderground v.1.15,2013-02-11 00:00:00,
2013-02-10 16:01:00,59.7,41.0,30.05,SSE,162,1.0,5.0,50,0.00,,,0.00,Wunderground v.1.15,2013-02-11 00:01:00,
2013-02-10 16:02:00,59.7,41.5,30.05,SSE,158,3.0,5.0,51,0.00,,,0.00,Wunderground v.1.15,2013-02-11 00:02:00,
2013-02-10 16:03:00,59.7,41.5,30.05,SSE,166,3.0,5.0,51,0.00,,,0.00,Wunderground v.1.15,2013-02-11 00:03:00,
2013-02-10 16:05:00,59.8,41.6,30.04,South,170,3.0,5.0,51,0.00,,,0.00,Wunderground v.1.15,2013-02-11 00:05:00,
2013-02-10 16:06:00,59.8,41.6,30.04,SSE,166,4.0,5.0,51,0.00,,,0.00,Wunderground v.1.15,2013-02-11 00:06:00,
2013-02-10 16:07:00,59.8,41.6,30.04,South,179,3.0,6.0,51,0.00,,,0.00,Wunderground v.1.15,2013-02-11 00:07:00,
2013-02-10 16:08:00,59.8,41.1,30.04,South,179,3.0,6.0,50,0.00,,,0.00,Wunderground v.1.15,2013-02-11 00:08:00,
2013-02-10 16:10:00,59.7,42.0,30.04,South,174,2.0,4.0,52,0.00,,,0.00,Wunderground v.1.15,2013-02-11 00:10:00,
2013-02-10 16:11:00,59.7,41.5,30.04,South,179,3.0,6.0,51,0.00,,,0.00,Wunderground v.1.15,2013-02-11 00:11:00,
2013-02-10 16:12:00,59.7,41.5,30.04,SSE,163,5.0,6.0,51,0.00,,,0.00,Wunderground v.1.15,2013-02-11 00:12:00,
2013-02-10 16:13:00,59.7,41.5,30.04,SSE,161,4.0,6.0,51,0.00,,,0.00,Wunderground v.1.15,2013-02-11 00:13:00,
2013-02-10 16:15:00,59.6,41.4,30.04,SSE,160,2.0,6.0,51,0.00,,,0.00,Wunderground v.1.15,2013-02-11 00:15:00,
2013-02-10 16:16:00,59.5,41.3,30.04,SSE,163,1.0,6.0,51,0.00,,,0.00,Wunderground v.1.15,2013-02-11 00:16:00,
2013-02-10 16:18:00,59.4,41.3,30.04,SSE,158,2.0,6.0,51,0.00,,,0.00,Wunderground v.1.15,2013-02-11 00:18:00,
2013-02-10 16:20:00,59.2,41.1,30.04,South,180,6.0,6.0,51,0.00,,,0.00,Wunderground v.1.15,2013-02-11 00:20:00,
2013-02-10 16:21:00,59.2,41.1,30.04,South,180,4.0,6.0,51,0.00,,,0.00,Wunderground v.1.15,2013-02-11 00:21:00,
2013-02-10 16:23:00,59.1,41.0,30.04,South,177,1.0,6.0,51,0.00,,,0.00,Wunderground v.1.15,2013-02-11 00:23:00,
2013-02-10 16:24:00,59.1,41.5,30.04,South,171,3.0,6.0,52,0.00,,,0.00,Wunderground v.1.15,2013-02-11 00:24:00,
2013-02-10 16:25:00,59.1,41.5,30.04,SE,143,3.0,7.0,52,0.00,,,0.00,Wunderground v.1.15,2013-02-11 00:25:00,
2013-02-10 16:26:00,59.1,41.5,30.04,SE,143,3.0,7.0,52,0.00,,,0.00,Wunderground v.1.15,2013-02-11 00:26:00,
2013-02-10 16:28:00,59.1,42.5,30.04,SSE,154,5.0,7.0,54,0.00,,,0.00,Wunderground v.1.15,2013-02-11 00:28:00,
2013-02-10 16:29:00,59.1,42.0,30.04,SSE,155,0.0,7.0,53,0.00,,,0.00,Wunderground v.1.15,2013-02-11 00:29:00,
2013-02-10 16:30:00,59.1,42.9,30.04,SSE,158,2.0,4.0,55,0.00,,,0.00,Wunderground v.1.15,2013-02-11 00:30:00,
2013-02-10 16:31:00,59.1,42.5,30.04,South,182,4.0,5.0,54,0.00,,,0.00,Wunderground v.1.15,2013-02-11 00:31:00,
2013-02-10 16:33:00,59.2,46.6,30.04,SW,214,7.0,8.0,63,0.00,,,0.00,Wunderground v.1.15,2013-02-11 00:33:00,
2013-02-10 16:34:00,59.1,46.9,30.04,SW,220,4.0,8.0,64,0.00,,,0.00,Wunderground v.1.15,2013-02-11 00:34:00,
2013-02-10 16:35:00,59.1,47.3,30.04,SW,218,4.0,8.0,65,0.00,,,0.00,Wunderground v.1.15,2013-02-11 00:35:00,
2013-02-10 16:36:00,59.1,47.3,30.04,SW,218,3.0,8.0,65,0.00,,,0.00,Wunderground v.1.15,2013-02-11 00:36:00,
2013-02-10 16:38:00,59.1,47.3,30.04,SW,226,4.0,8.0,65,0.00,,,0.00,Wunderground v.1.15,2013-02-11 00:38:00,
2013-02-10 16:39:00,59.0,46.8,30.04,WSW,245,2.0,8.0,64,0.00,,,0.00,Wunderground v.1.15,2013-02-11 00:39:00,
2013-02-10 16:41:00,59.0,47.2,30.04,WSW,248,5.0,7.0,65,0.00,,,0.00,Wunderground v.1.15,2013-02-11 00:41:00,
2013-02-10 16:42:00,59.0,47.2,30.04,WSW,247,4.0,7.0,65,0.00,,,0.00,Wunderground v.1.15,2013-02-11 00:42:00,
2013-02-10 16:43:00,58.9,47.2,30.04,WSW,247,3.0,7.0,65,0.00,,,0.00,Wunderground v.1.15,2013-02-11 00:43:00,
2013-02-10 16:45:00,58.8,47.5,30.04,SW,231,5.0,7.0,66,0.00,,,0.00,Wunderground v.1.15,2013-02-11 00:45:00,
2013-02-10 16:46:00,58.8,47.5,30.04,WSW,238,3.0,7.0,66,0.00,,,0.00,Wunderground v.1.15,2013-02-11 00:46:00,
2013-02-10 16:47:00,58.7,47.4,30.04,WSW,237,5.0,7.0,66,0.00,,,0.00,Wunderground v.1.15,2013-02-11 00:47:00,
2013-02-10 16:48:00,58.6,47.3,30.04,SW,231,7.0,8.0,66,0.00,,,0.00,Wunderground v.1.15,2013-02-11 00:48:00,
2013-02-10 16:50:00,58.3,47.0,30.04,SW,226,9.0,9.0,66,0.00,,,0.00,Wunderground v.1.15,2013-02-11 00:50:00,
2013-02-10 16:51:00,58.2,46.9,30.04,SW,226,7.0,9.0,66,0.00,,,0.00,Wunderground v.1.15,2013-02-11 00:51:00,
2013-02-10 16:52:00,58.0,47.1,30.04,SW,225,7.0,9.0,67,0.00,,,0.00,Wunderground v.1.15,2013-02-11 00:52:00,
2013-02-10 16:53:00,57.9,47.0,30.04,SW,220,5.0,9.0,67,0.00,,,0.00,Wunderground v.1.15,2013-02-11 00:53:00,
2013-02-10 16:55:00,57.7,46.8,30.04,SW,230,5.0,9.0,67,0.00,,,0.00,Wunderground v.1.15,2013-02-11 00:55:00,
2013-02-10 16:56:00,57.7,46.8,30.04,SW,227,5.0,9.0,67,0.00,,,0.00,Wunderground v.1.15,2013-02-11 00:56:00,
2013-02-10 16:57:00,57.6,46.7,30.04,SW,232,4.0,9.0,67,0.00,,,0.00,Wunderground v.1.15,2013-02-11 00:57:00,
2013-02-10 16:58:00,57.5,46.6,30.04,SW,233,5.0,9.0,67,0.00,,,0.00,Wunderground v.1.15,2013-02-11 00:58:00,
2013-02-10 17:00:00,57.5,46.6,30.04,SW,235,4.0,6.0,67,0.00,,,0.00,Wunderground v.1.15,2013-02-11 01:00:00,
2013-02-10 17:01:00,57.4,46.5,30.04,SW,227,5.0,7.0,67,0.00,,,0.00,Wunderground v.1.15,2013-02-11 01:01:00,
2013-02-10 17:03:00,57.3,46.4,30.04,SW,218,5.0,7.0,67,0.00,,,0.00,Wunderground v.1.15,2013-02-11 01:03:00,
2013-02-10 17:04:00,57.2,46.3,30.04,SW,226,4.0,7.0,67,0.00,,,0.00,Wunderground v.1.15,2013-02-11 01:04:00,
2013-02-10 17:05:00,57.1,46.2,30.04,SW,227,5.0,7.0,67,0.00,,,0.00,Wunderground v.1.15,2013-02-11 01:05:00,
2013-02-10 17:06:00,57.1,46.2,30.04,SW,228,4.0,7.0,67,0.00,,,0.00,Wunderground v.1.15,2013-02-11 01:06:00,
2013-02-10 17:08:00,57.1,46.2,30.04,SW,227,2.0,7.0,67,0.00,,,0.00,Wunderground v.1.15,2013-02-11 01:08:00,
2013-02-10 17:09:00,57.1,46.6,30.04,SW,227,3.0,7.0,68,0.00,,,0.00,Wunderground v.1.15,2013-02-11 01:09:00,
2013-02-10 17:11:00,57.1,46.6,30.04,SW,227,1.0,4.0,68,0.00,,,0.00,Wunderground v.1.15,2013-02-11 01:11:00,
2013-02-10 17:13:00,57.2,46.7,30.04,WSW,239,6.0,6.0,68,0.00,,,0.00,Wunderground v.1.15,2013-02-11 01:13:00,
2013-02-10 17:14:00,57.2,46.7,30.04,WSW,238,3.0,6.0,68,0.00,,,0.00,Wunderground v.1.15,2013-02-11 01:14:00,
2013-02-10 17:16:00,57.0,46.5,30.04,WSW,239,4.0,6.0,68,0.00,,,0.00,Wunderground v.1.15,2013-02-11 01:16:00,
2013-02-10 17:17:00,57.0,46.5,30.04,WSW,239,0.0,6.0,68,0.00,,,0.00,Wunderground v.1.15,2013-02-11 01:17:00,
2013-02-10 17:18:00,56.9,46.4,30.04,WSW,245,2.0,6.0,68,0.00,,,0.00,Wunderground v.1.15,2013-02-11 01:18:00,
2013-02-10 17:19:00,56.9,46.4,30.04,WSW,245,2.0,6.0,68,0.00,,,0.00,Wunderground v.1.15,2013-02-11 01:19:00,
2013-02-10 17:21:00,56.8,46.3,30.04,WSW,245,0.0,2.0,68,0.00,,,0.00,Wunderground v.1.15,2013-02-11 01:21:00,
2013-02-10 17:22:00,56.8,46.3,30.04,WSW,245,0.0,2.0,68,0.00,,,0.00,Wunderground v.1.15,2013-02-11 01:22:00,
2013-02-10 17:24:00,56.8,46.3,30.04,WSW,245,0.0,2.0,68,0.00,,,0.00,Wunderground v.1.15,2013-02-11 01:24:00,
2013-02-10 17:27:00,56.7,46.3,30.04,WSW,245,1.0,2.0,68,0.00,,,0.00,Wunderground v.1.15,2013-02-11 01:27:00,
2013-02-10 17:29:00,56.5,46.1,30.04,WSW,245,1.0,3.0,68,0.00,,,0.00,Wunderground v.1.15,2013-02-11 01:29:00,
2013-02-10 17:32:00,56.1,45.7,30.04,WSW,245,0.0,3.0,68,0.00,,,0.00,Wunderground v.1.15,2013-02-11 01:32:00,
2013-02-10 17:34:00,55.9,45.5,30.04,WSW,245,0.0,3.0,68,0.00,,,0.00,Wunderground v.1.15,2013-02-11 01:34:00,
2013-02-10 17:37:00,55.6,45.2,30.04,WSW,245,1.0,3.0,68,0.00,,,0.00,Wunderground v.1.15,2013-02-11 01:37:00,
2013-02-10 17:39:00,55.4,45.0,30.04,WSW,254,3.0,4.0,68,0.00,,,0.00,Wunderground v.1.15,2013-02-11 01:39:00,
2013-02-10 17:40:00,55.4,45.0,30.04,WSW,254,2.0,2.0,68,0.00,,,0.00,Wunderground v.1.15,2013-02-11 01:40:00,
2013-02-10 17:42:00,55.1,44.3,30.04,WSW,255,2.0,5.0,67,0.00,,,0.00,Wunderground v.1.15,2013-02-11 01:42:00,
2013-02-10 17:44:00,55.0,44.2,30.05,WSW,256,1.0,5.0,67,0.00,,,0.00,Wunderground v.1.15,2013-02-11 01:44:00,
2013-02-10 17:45:00,54.9,44.1,30.05,WSW,255,1.0,5.0,67,0.00,,,0.00,Wunderground v.1.15,2013-02-11 01:45:00,
2013-02-10 17:47:00,54.7,43.2,30.05,WSW,255,2.0,5.0,65,0.00,,,0.00,Wunderground v.1.15,2013-02-11 01:47:00,
2013-02-10 17:49:00,54.5,41.3,30.04,WSW,255,4.0,5.0,61,0.00,,,0.00,Wunderground v.1.15,2013-02-11 01:49:00,
2013-02-10 17:50:00,54.5,41.3,30.04,WSW,253,5.0,5.0,61,0.00,,,0.00,Wunderground v.1.15,2013-02-11 01:50:00,
2013-02-10 17:52:00,54.2,40.6,30.04,WSW,253,4.0,5.0,60,0.00,,,0.00,Wunderground v.1.15,2013-02-11 01:52:00,
2013-02-10 17:53:00,54.1,40.5,30.04,WSW,253,3.0,5.0,60,0.00,,,0.00,Wunderground v.1.15,2013-02-11 01:53:00,
2013-02-10 17:54:00,54.0,40.4,30.04,WSW,258,2.0,5.0,60,0.00,,,0.00,Wunderground v.1.15,2013-02-11 01:54:00,
2013-02-10 17:55:00,53.9,40.3,30.04,West,259,3.0,5.0,60,0.00,,,0.00,Wunderground v.1.15,2013-02-11 01:55:00,
2013-02-10 17:57:00,53.8,39.8,30.04,West,260,6.0,6.0,59,0.00,,,0.00,Wunderground v.1.15,2013-02-11 01:57:00,
2013-02-10 17:58:00,53.8,39.8,30.04,West,260,4.0,6.0,59,0.00,,,0.00,Wunderground v.1.15,2013-02-11 01:58:00,
2013-02-10 18:00:00,53.7,39.3,30.04,West,261,4.0,4.0,58,0.00,,,0.00,Wunderground v.1.15,2013-02-11 02:00:00,
2013-02-10 18:02:00,53.6,39.2,30.05,West,268,7.0,7.0,58,0.00,,,0.00,Wunderground v.1.15,2013-02-11 02:02:00,
2013-02-10 18:03:00,53.5,39.1,30.05,West,268,5.0,7.0,58,0.00,,,0.00,Wunderground v.1.15,2013-02-11 02:03:00,
2013-02-10 18:05:00,53.4,39.0,30.05,West,266,6.0,7.0,58,0.00,,,0.00,Wunderground v.1.15,2013-02-11 02:05:00,
2013-02-10 18:07:00,53.2,38.8,30.05,West,266,5.0,7.0,58,0.00,,,0.00,Wunderground v.1.15,2013-02-11 02:07:00,
2013-02-10 18:08:00,53.1,38.7,30.05,West,265,6.0,7.0,58,0.00,,,0.00,Wunderground v.1.15,2013-02-11 02:08:00,
2013-02-10 18:10:00,53.0,38.6,30.05,West,264,4.0,5.0,58,0.00,,,0.00,Wunderground v.1.15,2013-02-11 02:10:00,
2013-02-10 18:13:00,52.8,38.0,30.05,West,264,7.0,7.0,57,0.00,,,0.00,Wunderground v.1.15,2013-02-11 02:13:00,
2013-02-10 18:15:00,52.6,37.8,30.05,West,268,5.0,7.0,57,0.00,,,0.00,Wunderground v.1.15,2013-02-11 02:15:00,
2013-02-10 18:16:00,52.6,37.3,30.05,West,268,5.0,7.0,56,0.00,,,0.00,Wunderground v.1.15,2013-02-11 02:16:00,
2013-02-10 18:18:00,52.4,37.6,30.05,West,270,3.0,7.0,57,0.00,,,0.00,Wunderground v.1.15,2013-02-11 02:18:00,
2013-02-10 18:20:00,52.4,37.6,30.05,West,269,4.0,4.0,57,0.00,,,0.00,Wunderground v.1.15,2013-02-11 02:20:00,
2013-02-10 18:21:00,52.3,37.5,30.05,West,269,2.0,5.0,57,0.00,,,0.00,Wunderground v.1.15,2013-02-11 02:21:00,
2013-02-10 18:23:00,52.3,37.5,30.05,West,269,2.0,5.0,57,0.00,,,0.00,Wunderground v.1.15,2013-02-11 02:23:00,
2013-02-10 18:25:00,52.2,37.4,30.06,West,268,2.0,5.0,57,0.00,,,0.00,Wunderground v.1.15,2013-02-11 02:25:00,
2013-02-10 18:26:00,52.2,37.4,30.06,West,268,3.0,5.0,57,0.00,,,0.00,Wunderground v.1.15,2013-02-11 02:26:00,
2013-02-10 18:28:00,52.2,37.4,30.06,West,261,3.0,5.0,57,0.00,,,0.00,Wunderground v.1.15,2013-02-11 02:28:00,
2013-02-10 18:31:00,52.3,37.5,30.05,West,260,5.0,5.0,57,0.00,,,0.00,Wunderground v.1.15,2013-02-11 02:31:00,
2013-02-10 18:33:00,52.4,37.6,30.05,West,261,2.0,7.0,57,0.00,,,0.00,Wunderground v.1.15,2013-02-11 02:33:00,
2013-02-10 18:34:00,52.4,38.0,30.05,West,261,2.0,7.0,58,0.00,,,0.00,Wunderground v.1.15,2013-02-11 02:34:00,
2013-02-10 18:36:00,52.4,38.0,30.05,WSW,254,0.0,7.0,58,0.00,,,0.00,Wunderground v.1.15,2013-02-11 02:36:00,
2013-02-10 18:38:00,52.5,37.7,30.05,WSW,256,5.0,7.0,57,0.00,,,0.00,Wunderground v.1.15,2013-02-11 02:38:00,
2013-02-10 18:39:00,52.5,36.8,30.05,WSW,257,4.0,7.0,55,0.00,,,0.00,Wunderground v.1.15,2013-02-11 02:39:00,
2013-02-10 18:41:00,52.5,36.3,30.06,WSW,258,5.0,5.0,54,0.00,,,0.00,Wunderground v.1.15,2013-02-11 02:41:00,
2013-02-10 18:44:00,52.4,35.8,30.06,WSW,258,1.0,5.0,53,0.00,,,0.00,Wunderground v.1.15,2013-02-11 02:44:00,
2013-02-10 18:46:00,52.3,35.2,30.06,West,264,3.0,6.0,52,0.00,,,0.00,Wunderground v.1.15,2013-02-11 02:46:00,
2013-02-10 18:47:00,52.3,35.2,30.06,West,264,4.0,6.0,52,0.00,,,0.00,Wunderground v.1.15,2013-02-11 02:47:00,
2013-02-10 18:49:00,52.2,35.6,30.06,West,269,5.0,6.0,53,0.00,,,0.00,Wunderground v.1.15,2013-02-11 02:49:00,
2013-02-10 18:52:00,51.9,35.3,30.06,West,268,4.0,5.0,53,0.00,,,0.00,Wunderground v.1.15,2013-02-11 02:52:00,
2013-02-10 18:54:00,51.8,35.7,30.06,West,272,2.0,5.0,54,0.00,,,0.00,Wunderground v.1.15,2013-02-11 02:54:00,
2013-02-10 18:55:00,51.7,35.6,30.06,West,273,4.0,5.0,54,0.00,,,0.00,Wunderground v.1.15,2013-02-11 02:55:00,
2013-02-10 18:57:00,51.5,35.9,30.06,West,274,3.0,5.0,55,0.00,,,0.00,Wunderground v.1.15,2013-02-11 02:57:00,
2013-02-10 18:59:00,51.2,36.0,30.06,West,276,4.0,5.0,56,0.00,,,0.00,Wunderground v.1.15,2013-02-11 02:59:00,
2013-02-10 19:00:00,51.0,35.8,30.06,West,276,2.0,4.0,56,0.00,,,0.00,Wunderground v.1.15,2013-02-11 03:00:00,
2013-02-10 19:02:00,50.9,36.2,30.06,West,276,2.0,4.0,57,0.00,,,0.00,Wunderground v.1.15,2013-02-11 03:02:00,
2013-02-10 19:03:00,50.8,36.1,30.06,West,276,2.0,4.0,57,0.00,,,0.00,Wunderground v.1.15,2013-02-11 03:03:00,
2013-02-10 19:04:00,50.7,36.0,30.06,West,276,0.0,4.0,57,0.00,,,0.00,Wunderground v.1.15,2013-02-11 03:04:00,
2013-02-10 19:05:00,50.7,36.5,30.06,West,276,2.0,4.0,58,0.00,,,0.00,Wunderground v.1.15,2013-02-11 03:05:00,
2013-02-10 19:07:00,50.6,37.2,30.06,West,276,2.0,4.0,60,0.00,,,0.00,Wunderground v.1.15,2013-02-11 03:07:00,
2013-02-10 19:08:00,50.5,37.1,30.06,West,276,1.0,4.0,60,0.00,,,0.00,Wunderground v.1.15,2013-02-11 03:08:00,
2013-02-10 19:09:00,50.5,37.5,30.06,West,276,0.0,4.0,61,0.00,,,0.00,Wunderground v.1.15,2013-02-11 03:09:00,
2013-02-10 19:10:00,50.4,38.3,30.06,West,276,1.0,2.0,63,0.00,,,0.00,Wunderground v.1.15,2013-02-11 03:10:00,
2013-02-10 19:13:00,50.3,38.6,30.06,West,276,2.0,2.0,64,0.00,,,0.00,Wunderground v.1.15,2013-02-11 03:13:00,
2013-02-10 19:15:00,50.2,38.9,30.06,West,276,0.0,2.0,65,0.00,,,0.00,Wunderground v.1.15,2013-02-11 03:15:00,
2013-02-10 19:18:00,50.1,39.2,30.06,West,276,0.0,2.0,66,0.00,,,0.00,Wunderground v.1.15,2013-02-11 03:18:00,
2013-02-10 19:20:00,49.9,39.4,30.06,West,276,0.0,1.0,67,0.00,,,0.00,Wunderground v.1.15,2013-02-11 03:20:00,
2013-02-10 19:23:00,49.7,39.2,30.06,West,276,0.0,2.0,67,0.00,,,0.00,Wunderground v.1.15,2013-02-11 03:23:00,
2013-02-10 19:26:00,49.4,37.7,30.06,West,276,2.0,2.0,64,0.00,,,0.00,Wunderground v.1.15,2013-02-11 03:26:00,
2013-02-10 19:28:00,49.3,37.2,30.06,West,276,2.0,3.0,63,0.00,,,0.00,Wunderground v.1.15,2013-02-11 03:28:00,
2013-02-10 19:31:00,49.2,36.3,30.06,West,276,2.0,3.0,61,0.00,,,0.00,Wunderground v.1.15,2013-02-11 03:31:00,
2013-02-10 19:33:00,49.3,36.0,30.06,West,276,2.0,4.0,60,0.00,,,0.00,Wunderground v.1.15,2013-02-11 03:33:00,
2013-02-10 19:36:00,49.1,35.8,30.06,West,276,4.0,4.0,60,0.00,,,0.00,Wunderground v.1.15,2013-02-11 03:36:00,
2013-02-10 19:38:00,49.0,36.1,30.06,West,276,2.0,4.0,61,0.00,,,0.00,Wunderground v.1.15,2013-02-11 03:38:00,
2013-02-10 19:39:00,49.0,36.1,30.06,West,276,2.0,4.0,61,0.00,,,0.00,Wunderground v.1.15,2013-02-11 03:39:00,
2013-02-10 19:41:00,48.9,36.4,30.06,West,276,4.0,5.0,62,0.00,,,0.00,Wunderground v.1.15,2013-02-11 03:41:00,
2013-02-10 19:43:00,48.8,36.8,30.06,West,277,2.0,5.0,63,0.00,,,0.00,Wunderground v.1.15,2013-02-11 03:43:00,
2013-02-10 19:44:00,48.8,36.8,30.06,West,277,2.0,5.0,63,0.00,,,0.00,Wunderground v.1.15,2013-02-11 03:44:00,
2013-02-10 19:46:00,48.7,37.1,30.06,West,277,2.0,5.0,64,0.00,,,0.00,Wunderground v.1.15,2013-02-11 03:46:00,
2013-02-10 19:47:00,48.7,37.1,30.06,West,277,2.0,5.0,64,0.00,,,0.00,Wunderground v.1.15,2013-02-11 03:47:00,
2013-02-10 19:49:00,48.6,37.7,30.06,West,280,3.0,5.0,66,0.00,,,0.00,Wunderground v.1.15,2013-02-11 03:49:00,
2013-02-10 19:52:00,48.3,38.2,30.06,West,280,1.0,3.0,68,0.00,,,0.00,Wunderground v.1.15,2013-02-11 03:52:00,
2013-02-10 19:54:00,48.1,38.4,30.06,West,281,1.0,3.0,69,0.00,,,0.00,Wunderground v.1.15,2013-02-11 03:54:00,
2013-02-10 19:57:00,47.8,38.8,30.06,West,281,0.0,3.0,71,0.00,,,0.00,Wunderground v.1.15,2013-02-11 03:57:00,
2013-02-10 19:59:00,47.5,39.3,30.06,West,280,1.0,3.0,73,0.00,,,0.00,Wunderground v.1.15,2013-02-11 03:59:00,
2013-02-10 20:02:00,47.1,39.2,30.06,West,281,0.0,2.0,74,0.00,,,0.00,Wunderground v.1.15,2013-02-11 04:02:00,
2013-02-10 20:04:00,46.8,38.9,30.06,West,281,0.0,2.0,74,0.00,,,0.00,Wunderground v.1.15,2013-02-11 04:04:00,
2013-02-10 20:08:00,46.7,38.5,30.06,West,280,1.0,3.0,73,0.00,,,0.00,Wunderground v.1.15,2013-02-11 04:08:00,
2013-02-10 20:09:00,46.8,38.2,30.06,West,280,1.0,3.0,72,0.00,,,0.00,Wunderground v.1.15,2013-02-11 04:09:00,
2013-02-10 20:12:00,46.8,38.2,30.06,West,280,0.0,3.0,72,0.00,,,0.00,Wunderground v.1.15,2013-02-11 04:12:00,
2013-02-10 20:13:00,46.8,38.2,30.06,West,281,0.0,3.0,72,0.00,,,0.00,Wunderground v.1.15,2013-02-11 04:13:00,
2013-02-10 20:14:00,46.9,38.3,30.06,West,281,0.0,3.0,72,0.00,,,0.00,Wunderground v.1.15,2013-02-11 04:14:00,
2013-02-10 20:18:00,46.9,38.3,30.06,West,281,2.0,3.0,72,0.00,,,0.00,Wunderground v.1.15,2013-02-11 04:18:00,
2013-02-10 20:19:00,46.9,38.3,30.06,West,281,0.0,3.0,72,0.00,,,0.00,Wunderground v.1.15,2013-02-11 04:19:00,
2013-02-10 20:20:00,46.9,38.3,30.06,West,280,0.0,1.0,72,0.00,,,0.00,Wunderground v.1.15,2013-02-11 04:20:00,
2013-02-10 20:23:00,46.9,38.3,30.06,West,281,1.0,2.0,72,0.00,,,0.00,Wunderground v.1.15,2013-02-11 04:23:00,
2013-02-10 20:24:00,46.9,38.3,30.06,West,281,0.0,2.0,72,0.00,,,0.00,Wunderground v.1.15,2013-02-11 04:24:00,
2013-02-10 20:25:00,46.9,38.3,30.06,West,281,2.0,2.0,72,0.00,,,0.00,Wunderground v.1.15,2013-02-11 04:25:00,
2013-02-10 20:28:00,46.8,38.9,30.07,West,281,1.0,4.0,74,0.00,,,0.00,Wunderground v.1.15,2013-02-11 04:28:00,
2013-02-10 20:29:00,46.7,38.9,30.07,West,281,2.0,4.0,74,0.00,,,0.00,Wunderground v.1.15,2013-02-11 04:29:00,
2013-02-10 20:30:00,46.5,39.0,30.07,West,281,2.0,3.0,75,0.00,,,0.00,Wunderground v.1.15,2013-02-11 04:30:00,
2013-02-10 20:33:00,46.0,39.5,30.07,WNW,288,4.0,5.0,78,0.00,,,0.00,Wunderground v.1.15,2013-02-11 04:33:00,
2013-02-10 20:34:00,46.0,39.9,30.07,WNW,291,3.0,5.0,79,0.00,,,0.00,Wunderground v.1.15,2013-02-11 04:34:00,
2013-02-10 20:35:00,46.0,39.9,30.07,WNW,291,3.0,5.0,79,0.00,,,0.00,Wunderground v.1.15,2013-02-11 04:35:00,
2013-02-10 20:38:00,45.8,40.0,30.07,WNW,291,3.0,5.0,80,0.00,,,0.00,Wunderground v.1.15,2013-02-11 04:38:00,
2013-02-10 20:39:00,45.6,39.8,30.07,WNW,291,2.0,5.0,80,0.00,,,0.00,Wunderground v.1.15,2013-02-11 04:39:00,
2013-02-10 20:40:00,45.5,39.7,30.07,WNW,290,3.0,3.0,80,0.00,,,0.00,Wunderground v.1.15,2013-02-11 04:40:00,
2013-02-10 20:43:00,45.1,39.6,30.07,WNW,293,4.0,4.0,81,0.00,,,0.00,Wunderground v.1.15,2013-02-11 04:43:00,
2013-02-10 20:44:00,44.9,39.4,30.07,WNW,293,1.0,4.0,81,0.00,,,0.00,Wunderground v.1.15,2013-02-11 04:44:00,
2013-02-10 20:45:00,44.8,39.3,30.07,WNW,293,1.0,4.0,81,0.00,,,0.00,Wunderground v.1.15,2013-02-11 04:45:00,
2013-02-10 20:46:00,44.7,39.2,30.07,WNW,293,2.0,4.0,81,0.00,,,0.00,Wunderground v.1.15,2013-02-11 04:46:00,
2013-02-10 20:48:00,44.4,38.9,30.07,WNW,293,1.0,4.0,81,0.00,,,0.00,Wunderground v.1.15,2013-02-11 04:48:00,
2013-02-10 20:49:00,44.3,39.2,30.07,WNW,293,1.0,4.0,82,0.00,,,0.00,Wunderground v.1.15,2013-02-11 04:49:00,
2013-02-10 20:50:00,44.3,39.2,30.07,WNW,293,1.0,3.0,82,0.00,,,0.00,Wunderground v.1.15,2013-02-11 04:50:00,
2013-02-10 20:51:00,44.2,39.1,30.07,WNW,293,0.0,3.0,82,0.00,,,0.00,Wunderground v.1.15,2013-02-11 04:51:00,
2013-02-10 20:54:00,44.3,39.5,30.07,WNW,293,1.0,3.0,83,0.00,,,0.00,Wunderground v.1.15,2013-02-11 04:54:00,
2013-02-10 20:56:00,44.6,39.8,30.07,WNW,293,0.0,3.0,83,0.00,,,0.00,Wunderground v.1.15,2013-02-11 04:56:00,
2013-02-10 20:59:00,44.9,40.0,30.07,WNW,285,3.0,5.0,83,0.00,,,0.00,Wunderground v.1.15,2013-02-11 04:59:00,
2013-02-10 21:00:00,44.9,39.7,30.07,WNW,283,4.0,4.0,82,0.00,,,0.00,Wunderground v.1.15,2013-02-11 05:00:00,
2013-02-10 21:05:00,45.5,40.0,30.07,WNW,282,3.0,4.0,81,0.00,,,0.00,Wunderground v.1.15,2013-02-11 05:05:00,
2013-02-10 21:10:00,45.8,40.0,30.07,WNW,282,1.0,2.0,80,0.00,,,0.00,Wunderground v.1.15,2013-02-11 05:10:00,
2013-02-10 21:15:00,45.9,39.8,30.07,West,281,0.0,3.0,79,0.00,,,0.00,Wunderground v.1.15,2013-02-11 05:15:00,
2013-02-10 21:20:00,45.6,39.1,30.07,WNW,282,0.0,0.0,78,0.00,,,0.00,Wunderground v.1.15,2013-02-11 05:20:00,
2013-02-10 21:21:00,45.4,38.9,30.07,WNW,282,0.0,0.0,78,0.00,,,0.00,Wunderground v.1.15,2013-02-11 05:21:00,
2013-02-10 21:25:00,44.5,38.1,30.07,West,281,1.0,2.0,78,0.00,,,0.00,Wunderground v.1.15,2013-02-11 05:25:00,
2013-02-10 21:26:00,44.3,37.9,30.07,WNW,282,3.0,3.0,78,0.00,,,0.00,Wunderground v.1.15,2013-02-11 05:26:00,
2013-02-10 21:30:00,43.9,38.4,30.07,WNW,283,3.0,3.0,81,0.00,,,0.00,Wunderground v.1.15,2013-02-11 05:30:00,
2013-02-10 21:31:00,43.8,38.3,30.07,WNW,287,2.0,3.0,81,0.00,,,0.00,Wunderground v.1.15,2013-02-11 05:31:00,
2013-02-10 21:35:00,43.6,38.5,30.07,WNW,287,2.0,3.0,82,0.00,,,0.00,Wunderground v.1.15,2013-02-11 05:35:00,
2013-02-10 21:36:00,43.6,38.5,30.08,WNW,287,3.0,3.0,82,0.00,,,0.00,Wunderground v.1.15,2013-02-11 05:36:00,
2013-02-10 21:40:00,43.7,38.9,30.08,WNW,287,0.0,2.0,83,0.00,,,0.00,Wunderground v.1.15,2013-02-11 05:40:00,
2013-02-10 21:42:00,43.7,38.6,30.08,WNW,287,0.0,2.0,82,0.00,,,0.00,Wunderground v.1.15,2013-02-11 05:42:00,
2013-02-10 21:45:00,43.5,38.4,30.08,WNW,287,0.0,2.0,82,0.00,,,0.00,Wunderground v.1.15,2013-02-11 05:45:00,
2013-02-10 21:47:00,43.4,38.3,30.08,WNW,287,0.0,2.0,82,0.00,,,0.00,Wunderground v.1.15,2013-02-11 05:47:00,
2013-02-10 21:51:00,43.1,38.0,30.08,WNW,287,0.0,0.0,82,0.00,,,0.00,Wunderground v.1.15,2013-02-11 05:51:00,
2013-02-10 21:52:00,43.1,38.0,30.08,WNW,287,0.0,0.0,82,0.00,,,0.00,Wunderground v.1.15,2013-02-11 05:52:00,
2013-02-10 21:56:00,42.8,37.7,30.08,WNW,287,0.0,1.0,82,0.00,,,0.00,Wunderground v.1.15,2013-02-11 05:56:00,
2013-02-10 21:57:00,42.8,37.7,30.08,WNW,287,0.0,1.0,82,0.00,,,0.00,Wunderground v.1.15,2013-02-11 05:57:00,
2013-02-10 22:01:00,42.7,37.9,30.08,WNW,287,1.0,2.0,83,0.00,,,0.00,Wunderground v.1.15,2013-02-11 06:01:00,
2013-02-10 22:02:00,42.7,37.9,30.08,WNW,287,2.0,3.0,83,0.00,,,0.00,Wunderground v.1.15,2013-02-11 06:02:00,
2013-02-10 22:06:00,43.0,38.2,30.08,WNW,287,1.0,3.0,83,0.00,,,0.00,Wunderground v.1.15,2013-02-11 06:06:00,
2013-02-10 22:07:00,43.1,38.3,30.08,WNW,287,1.0,3.0,83,0.00,,,0.00,Wunderground v.1.15,2013-02-11 06:07:00,
2013-02-10 22:11:00,43.8,38.3,30.08,WNW,287,3.0,3.0,81,0.00,,,0.00,Wunderground v.1.15,2013-02-11 06:11:00,
2013-02-10 22:12:00,43.8,38.0,30.08,WNW,291,3.0,5.0,80,0.00,,,0.00,Wunderground v.1.15,2013-02-11 06:12:00,
2013-02-10 22:16:00,44.3,38.2,30.08,WNW,294,1.0,5.0,79,0.00,,,0.00,Wunderground v.1.15,2013-02-11 06:16:00,
2013-02-10 22:17:00,44.3,38.2,30.08,WNW,294,0.0,5.0,79,0.00,,,0.00,Wunderground v.1.15,2013-02-11 06:17:00,
2013-02-10 22:21:00,43.8,37.4,30.08,WNW,294,2.0,2.0,78,0.00,,,0.00,Wunderground v.1.15,2013-02-11 06:21:00,
2013-02-10 22:22:00,43.7,37.3,30.08,WNW,293,3.0,3.0,78,0.00,,,0.00,Wunderground v.1.15,2013-02-11 06:22:00,
2013-02-10 22:26:00,41.8,36.1,30.08,West,273,1.0,3.0,80,0.00,,,0.00,Wunderground v.1.15,2013-02-11 06:26:00,
2013-02-10 22:27:00,41.7,36.0,30.08,West,273,0.0,3.0,80,0.00,,,0.00,Wunderground v.1.15,2013-02-11 06:27:00,
2013-02-10 22:32:00,41.2,36.7,30.08,West,270,1.0,3.0,84,0.00,,,0.00,Wunderground v.1.15,2013-02-11 06:32:00,
2013-02-10 22:33:00,41.2,37.0,30.08,WSW,245,3.0,4.0,85,0.00,,,0.00,Wunderground v.1.15,2013-02-11 06:33:00,
2013-02-10 22:37:00,41.7,37.8,30.08,SW,223,0.0,4.0,86,0.00,,,0.00,Wunderground v.1.15,2013-02-11 06:37:00,
2013-02-10 22:38:00,41.8,37.6,30.08,SW,223,0.0,4.0,85,0.00,,,0.00,Wunderground v.1.15,2013-02-11 06:38:00,
2013-02-10 22:42:00,41.3,36.8,30.08,SW,223,0.0,4.0,84,0.00,,,0.00,Wunderground v.1.15,2013-02-11 06:42:00,
2013-02-10 22:43:00,41.3,36.8,30.08,SW,222,1.0,4.0,84,0.00,,,0.00,Wunderground v.1.15,2013-02-11 06:43:00,
2013-02-10 22:44:00,41.3,37.1,30.08,SW,220,4.0,8.0,85,0.00,,,0.00,Wunderground v.1.15,2013-02-11 06:44:00,
2013-02-10 22:48:00,42.5,38.3,30.08,SW,224,3.0,8.0,85,0.00,,,0.00,Wunderground v.1.15,2013-02-11 06:48:00,
2013-02-10 22:49:00,43.0,38.5,30.08,SW,224,3.0,8.0,84,0.00,,,0.00,Wunderground v.1.15,2013-02-11 06:49:00,
2013-02-10 22:53:00,44.3,39.2,30.08,SW,225,5.0,7.0,82,0.00,,,0.00,Wunderground v.1.15,2013-02-11 06:53:00,
2013-02-10 22:54:00,44.4,38.9,30.08,SW,223,4.0,7.0,81,0.00,,,0.00,Wunderground v.1.15,2013-02-11 06:54:00,
2013-02-10 22:58:00,44.3,38.8,30.08,SW,223,0.0,7.0,81,0.00,,,0.00,Wunderground v.1.15,2013-02-11 06:58:00,
2013-02-10 22:59:00,44.3,38.8,30.09,SW,223,1.0,7.0,81,0.00,,,0.00,Wunderground v.1.15,2013-02-11 06:59:00,
2013-02-10 23:03:00,45.0,37.9,30.08,SW,223,0.0,3.0,76,0.00,,,0.00,Wunderground v.1.15,2013-02-11 07:03:00,
2013-02-10 23:04:00,45.2,38.4,30.08,SW,223,7.0,7.0,77,0.00,,,0.00,Wunderground v.1.15,2013-02-11 07:04:00,
2013-02-10 23:08:00,45.8,36.6,30.09,ESE,117,0.0,7.0,70,0.00,,,0.00,Wunderground v.1.15,2013-02-11 07:08:00,
2013-02-10 23:09:00,46.2,36.6,30.09,ESE,117,0.0,7.0,69,0.00,,,0.00,Wunderground v.1.15,2013-02-11 07:09:00,
2013-02-10 23:13:00,46.3,37.0,30.09,ESE,117,1.0,4.0,70,0.00,,,0.00,Wunderground v.1.15,2013-02-11 07:13:00,
2013-02-10 23:14:00,46.2,37.0,30.09,ESE,117,0.0,4.0,70,0.00,,,0.00,Wunderground v.1.15,2013-02-11 07:14:00,
2013-02-10 23:15:00,46.0,36.8,30.09,ESE,117,1.0,4.0,70,0.00,,,0.00,Wunderground v.1.15,2013-02-11 07:15:00,
2013-02-10 23:18:00,45.5,37.0,30.09,ESE,117,2.0,4.0,72,0.00,,,0.00,Wunderground v.1.15,2013-02-11 07:18:00,
2013-02-10 23:19:00,45.3,37.2,30.09,ESE,117,2.0,4.0,73,0.00,,,0.00,Wunderground v.1.15,2013-02-11 07:19:00,
2013-02-10 23:20:00,45.1,37.0,30.09,ESE,116,1.0,3.0,73,0.00,,,0.00,Wunderground v.1.15,2013-02-11 07:20:00,
2013-02-10 23:23:00,44.9,37.1,30.09,ESE,117,3.0,3.0,74,0.00,,,0.00,Wunderground v.1.15,2013-02-11 07:23:00,
2013-02-10 23:24:00,44.8,37.0,30.09,ESE,117,3.0,3.0,74,0.00,,,0.00,Wunderground v.1.15,2013-02-11 07:24:00,
2013-02-10 23:25:00,44.7,37.3,30.09,ESE,117,0.0,3.0,75,0.00,,,0.00,Wunderground v.1.15,2013-02-11 07:25:00,
2013-02-10 23:28:00,44.5,37.1,30.09,ESE,117,0.0,3.0,75,0.00,,,0.00,Wunderground v.1.15,2013-02-11 07:28:00,
2013-02-10 23:29:00,44.5,37.1,30.09,ESE,117,0.0,3.0,75,0.00,,,0.00,Wunderground v.1.15,2013-02-11 07:29:00,
2013-02-10 23:30:00,44.4,37.0,30.09,ESE,117,0.0,1.0,75,0.00,,,0.00,Wunderground v.1.15,2013-02-11 07:30:00,
2013-02-10 23:33:00,44.2,37.1,30.09,ESE,117,0.0,1.0,76,0.00,,,0.00,Wunderground v.1.15,2013-02-11 07:33:00,
2013-02-10 23:34:00,44.1,37.0,30.09,ESE,116,0.0,1.0,76,0.00,,,0.00,Wunderground v.1.15,2013-02-11 07:34:00,
2013-02-10 23:35:00,44.1,37.0,30.09,ESE,116,0.0,1.0,76,0.00,,,0.00,Wunderground v.1.15,2013-02-11 07:35:00,
2013-02-10 23:38:00,43.8,36.7,30.09,ESE,117,0.0,1.0,76,0.00,,,0.00,Wunderground v.1.15,2013-02-11 07:38:00,
2013-02-10 23:39:00,43.8,36.7,30.09,ESE,117,0.0,1.0,76,0.00,,,0.00,Wunderground v.1.15,2013-02-11 07:39:00,
2013-02-10 23:40:00,43.8,36.7,30.09,ESE,117,0.0,0.0,76,0.00,,,0.00,Wunderground v.1.15,2013-02-11 07:40:00,
2013-02-10 23:41:00,43.7,37.0,30.09,ESE,117,0.0,0.0,77,0.00,,,0.00,Wunderground v.1.15,2013-02-11 07:41:00,
2013-02-10 23:43:00,43.6,36.9,30.09,ESE,117,0.0,0.0,77,0.00,,,0.00,Wunderground v.1.15,2013-02-11 07:43:00,
2013-02-10 23:45:00,43.4,36.7,30.09,ESE,117,0.0,0.0,77,0.00,,,0.00,Wunderground v.1.15,2013-02-11 07:45:00,
2013-02-10 23:46:00,43.4,37.0,30.09,ESE,117,0.0,1.0,78,0.00,,,0.00,Wunderground v.1.15,2013-02-11 07:46:00,
2013-02-10 23:48:00,43.3,36.9,30.09,ESE,116,0.0,1.0,78,0.00,,,0.00,Wunderground v.1.15,2013-02-11 07:48:00,
2013-02-10 23:50:00,43.1,36.7,30.09,ESE,117,1.0,1.0,78,0.00,,,0.00,Wunderground v.1.15,2013-02-11 07:50:00,
2013-02-10 23:51:00,43.1,36.7,30.09,ESE,116,1.0,1.0,78,0.00,,,0.00,Wunderground v.1.15,2013-02-11 07:51:00,
2013-02-10 23:53:00,42.9,36.8,30.09,ESE,116,1.0,2.0,79,0.00,,,0.00,Wunderground v.1.15,2013-02-11 07:53:00,
2013-02-10 23:55:00,42.9,36.8,30.09,ESE,117,1.0,3.0,79,0.00,,,0.00,Wunderground v.1.15,2013-02-11 07:55:00,
2013-02-10 23:56:00,42.9,37.2,30.09,ESE,116,0.0,3.0,80,0.00,,,0.00,Wunderground v.1.15,2013-02-11 07:56:00,
2013-02-10 23:58:00,42.9,37.2,30.09,ESE,117,1.0,3.0,80,0.00,,,0.00,Wunderground v.1.15,2013-02-11 07:58:00,